Wetterdaten: Dienstag, 11.03.2014
Datum Zeit Temp. Aussen +5cm Feuchte Auss Luftdruck Regen Sonnenschein Regendauer UV Solar Windben
11.03.2014 00:00 9,3 C 7,8 C 84 % 1026,4 hPa 0,0 l/m 0 min 0 min 0,0 UV-I 0 W/m 0,0 km/h (0 Bft)
11.03.2014 00:02 9,2 C 7,8 C 84 % 1026,4 hPa 0,0 l/m 0 min 0 min 0,0 UV-I 0 W/m 2,6 km/h (1 Bft)
11.03.2014 00:06 9,2 C 7,8 C 85 % 1026,5 hPa 0,0 l/m 0 min 0 min 0,0 UV-I 0 W/m 10,3 km/h (2 Bft)
11.03.2014 00:08 9,2 C 7,8 C 85 % 1026,5 hPa 0,0 l/m 0 min 0 min 0,0 UV-I 0 W/m 2,6 km/h (1 Bft)
11.03.2014 00:10 9,2 C 7,8 C 85 % 1026,5 hPa 0,0 l/m 0 min 0 min 0,0 UV-I 0 W/m 7,7 km/h (2 Bft)
11.03.2014 00:12 9,1 C 7,8 C 85 % 1026,5 hPa 0,0 l/m 0 min 0 min 0,0 UV-I 0 W/m 0,0 km/h (0 Bft)
11.03.2014 00:14 9,1 C 7,2 C 85 % 1026,6 hPa 0,0 l/m 0 min 0 min 0,0 UV-I 0 W/m 2,6 km/h (1 Bft)
11.03.2014 00:16 9,1 C 7,2 C 85 % 1026,5 hPa 0,0 l/m 0 min 0 min 0,0 UV-I 0 W/m 7,7 km/h (2 Bft)
11.03.2014 00:18 9,0 C 7,2 C 85 % 1026,7 hPa 0,0 l/m 0 min 0 min 0,0 UV-I 0 W/m 7,7 km/h (2 Bft)
11.03.2014 00:20 8,9 C 7,2 C 86 % 1026,6 hPa 0,0 l/m 0 min 0 min 0,0 UV-I 0 W/m 7,7 km/h (2 Bft)
11.03.2014 00:22 8,9 C 7,2 C 86 % 1026,7 hPa 0,0 l/m 0 min 0 min 0,0 UV-I 0 W/m 10,3 km/h (2 Bft)
11.03.2014 00:24 8,9 C 7,2 C 86 % 1026,6 hPa 0,0 l/m 0 min 0 min 0,0 UV-I 0 W/m 10,3 km/h (2 Bft)
11.03.2014 00:26 8,9 C 7,2 C 86 % 1026,6 hPa 0,0 l/m 0 min 0 min 0,0 UV-I 0 W/m 10,3 km/h (2 Bft)
11.03.2014 00:28 8,8 C 7,2 C 86 % 1026,6 hPa 0,0 l/m 0 min 0 min 0,0 UV-I 0 W/m 10,3 km/h (2 Bft)
11.03.2014 00:30 8,8 C 7,2 C 86 % 1026,6 hPa 0,0 l/m 0 min 0 min 0,0 UV-I 0 W/m 5,1 km/h (1 Bft)
11.03.2014 00:32 8,8 C 7,2 C 87 % 1026,5 hPa 0,0 l/m 0 min 0 min 0,0 UV-I 0 W/m 5,1 km/h (1 Bft)
11.03.2014 00:34 8,7 C 7,2 C 86 % 1026,6 hPa 0,0 l/m 0 min 0 min 0,0 UV-I 0 W/m 5,1 km/h (1 Bft)
11.03.2014 00:36 8,7 C 7,2 C 87 % 1026,6 hPa 0,0 l/m 0 min 0 min 0,0 UV-I 0 W/m 2,6 km/h (1 Bft)
11.03.2014 00:38 8,7 C 7,2 C 87 % 1026,7 hPa 0,0 l/m 0 min 0 min 0,0 UV-I 0 W/m 7,7 km/h (2 Bft)
11.03.2014 00:40 8,7 C 7,2 C 87 % 1026,8 hPa 0,0 l/m 0 min 0 min 0,0 UV-I 0 W/m 2,6 km/h (1 Bft)
11.03.2014 00:42 8,6 C 7,2 C 87 % 1026,8 hPa 0,0 l/m 0 min 0 min 0,0 UV-I 0 W/m 7,7 km/h (2 Bft)
11.03.2014 00:44 8,6 C 7,2 C 87 % 1026,8 hPa 0,0 l/m 0 min 0 min 0,0 UV-I 0 W/m 2,6 km/h (1 Bft)
11.03.2014 00:46 8,6 C 7,2 C 88 % 1026,8 hPa 0,0 l/m 0 min 0 min 0,0 UV-I 0 W/m 7,7 km/h (2 Bft)
11.03.2014 00:48 8,5 C 7,2 C 88 % 1026,9 hPa 0,0 l/m 0 min 0 min 0,0 UV-I 0 W/m 12,9 km/h (3 Bft)
11.03.2014 00:50 8,5 C 7,2 C 88 % 1026,9 hPa 0,0 l/m 0 min 0 min 0,0 UV-I 0 W/m 5,1 km/h (1 Bft)
11.03.2014 00:52 8,4 C 7,2 C 88 % 1027,0 hPa 0,0 l/m 0 min 0 min 0,0 UV-I 0 W/m 7,7 km/h (2 Bft)
11.03.2014 00:54 8,4 C 7,2 C 88 % 1027,0 hPa 0,0 l/m 0 min 0 min 0,0 UV-I 0 W/m 7,7 km/h (2 Bft)
11.03.2014 00:56 8,4 C 6,7 C 88 % 1027,0 hPa 0,0 l/m 0 min 0 min 0,0 UV-I 0 W/m 5,1 km/h (1 Bft)
11.03.2014 00:58 8,3 C 6,7 C 88 % 1027,0 hPa 0,0 l/m 0 min 0 min 0,0 UV-I 0 W/m 7,7 km/h (2 Bft)
11.03.2014 01:00 8,3 C 6,7 C 88 % 1027,0 hPa 0,0 l/m 0 min 0 min 0,0 UV-I 0 W/m 10,3 km/h (2 Bft)
11.03.2014 01:02 8,3 C 6,7 C 88 % 1027,0 hPa 0,0 l/m 0 min 0 min 0,0 UV-I 0 W/m 10,3 km/h (2 Bft)
11.03.2014 01:04 8,2 C 6,7 C 88 % 1027,0 hPa 0,0 l/m 0 min 0 min 0,0 UV-I 0 W/m 7,7 km/h (2 Bft)
11.03.2014 01:06 8,2 C 6,7 C 88 % 1027,1 hPa 0,0 l/m 0 min 0 min 0,0 UV-I 0 W/m 0,0 km/h (0 Bft)
11.03.2014 01:08 8,2 C 6,7 C 89 % 1027,0 hPa 0,0 l/m 0 min 0 min 0,0 UV-I 0 W/m 10,3 km/h (2 Bft)
11.03.2014 01:10 8,1 C 6,7 C 89 % 1027,1 hPa 0,0 l/m 0 min 0 min 0,0 UV-I 0 W/m 2,6 km/h (1 Bft)
11.03.2014 01:12 8,1 C 6,7 C 89 % 1027,1 hPa 0,0 l/m 0 min 0 min 0,0 UV-I 0 W/m 7,7 km/h (2 Bft)
11.03.2014 01:14 8,0 C 6,7 C 89 % 1027,1 hPa 0,0 l/m 0 min 0 min 0,0 UV-I 0 W/m 5,1 km/h (1 Bft)
11.03.2014 01:16 7,9 C 6,7 C 89 % 1027,2 hPa 0,0 l/m 0 min 0 min 0,0 UV-I 0 W/m 7,7 km/h (2 Bft)
11.03.2014 01:18 7,9 C 6,7 C 89 % 1027,2 hPa 0,0 l/m 0 min 0 min 0,0 UV-I 0 W/m 7,7 km/h (2 Bft)
11.03.2014 01:20 7,9 C 6,7 C 89 % 1027,2 hPa 0,0 l/m 0 min 0 min 0,0 UV-I 0 W/m 10,3 km/h (2 Bft)
11.03.2014 01:22 7,8 C 6,7 C 89 % 1027,3 hPa 0,0 l/m 0 min 0 min 0,0 UV-I 0 W/m 5,1 km/h (1 Bft)
11.03.2014 01:24 7,8 C 6,7 C 90 % 1027,3 hPa 0,0 l/m 0 min 0 min 0,0 UV-I 0 W/m 7,7 km/h (2 Bft)
11.03.2014 01:26 7,7 C 6,7 C 89 % 1027,4 hPa 0,0 l/m 0 min 0 min 0,0 UV-I 0 W/m 10,3 km/h (2 Bft)
11.03.2014 01:28 7,7 C 6,1 C 90 % 1027,3 hPa 0,0 l/m 0 min 0 min 0,0 UV-I 0 W/m 7,7 km/h (2 Bft)
11.03.2014 01:30 7,7 C 6,1 C 90 % 1027,3 hPa 0,0 l/m 0 min 0 min 0,0 UV-I 0 W/m 12,9 km/h (3 Bft)
11.03.2014 01:32 7,6 C 6,1 C 90 % 1027,4 hPa 0,0 l/m 0 min 0 min 0,0 UV-I 0 W/m 7,7 km/h (2 Bft)
11.03.2014 01:34 7,6 C 6,1 C 90 % 1027,5 hPa 0,0 l/m 0 min 0 min 0,0 UV-I 0 W/m 7,7 km/h (2 Bft)
11.03.2014 01:36 7,5 C 6,1 C 90 % 1027,5 hPa 0,0 l/m 0 min 0 min 0,0 UV-I 0 W/m 7,7 km/h (2 Bft)
11.03.2014 01:38 7,5 C 6,1 C 90 % 1027,5 hPa 0,0 l/m 0 min 0 min 0,0 UV-I 0 W/m 5,1 km/h (1 Bft)
11.03.2014 01:40 7,4 C 6,1 C 90 % 1027,5 hPa 0,0 l/m 0 min 0 min 0,0 UV-I 0 W/m 10,3 km/h (2 Bft)
11.03.2014 01:42 7,4 C 6,1 C 90 % 1027,5 hPa 0,0 l/m 0 min 0 min 0,0 UV-I 0 W/m 10,3 km/h (2 Bft)
11.03.2014 01:44 7,4 C 6,1 C 90 % 1027,6 hPa 0,0 l/m 0 min 0 min 0,0 UV-I 0 W/m 2,6 km/h (1 Bft)
11.03.2014 01:46 7,4 C 6,1 C 91 % 1027,6 hPa 0,0 l/m 0 min 0 min 0,0 UV-I 0 W/m 10,3 km/h (2 Bft)
11.03.2014 01:48 7,3 C 6,1 C 91 % 1027,6 hPa 0,0 l/m 0 min 0 min 0,0 UV-I 0 W/m 7,7 km/h (2 Bft)
11.03.2014 01:50 7,3 C 6,1 C 91 % 1027,6 hPa 0,0 l/m 0 min 0 min 0,0 UV-I 0 W/m 10,3 km/h (2 Bft)
11.03.2014 01:52 7,3 C 6,1 C 91 % 1027,6 hPa 0,0 l/m 0 min 0 min 0,0 UV-I 0 W/m 10,3 km/h (2 Bft)
11.03.2014 01:54 7,3 C 6,1 C 91 % 1027,6 hPa 0,0 l/m 0 min 0 min 0,0 UV-I 0 W/m 5,1 km/h (1 Bft)
11.03.2014 01:56 7,2 C 6,1 C 91 % 1027,6 hPa 0,0 l/m 0 min 0 min 0,0 UV-I 0 W/m 0,0 km/h (0 Bft)
11.03.2014 01:58 7,2 C 6,1 C 91 % 1027,6 hPa 0,0 l/m 0 min 0 min 0,0 UV-I 0 W/m 7,7 km/h (2 Bft)
11.03.2014 02:00 7,2 C 5,6 C 91 % 1027,6 hPa 0,0 l/m 0 min 0 min 0,0 UV-I 0 W/m 5,1 km/h (1 Bft)
11.03.2014 02:02 7,2 C 5,6 C 91 % 1027,7 hPa 0,0 l/m 0 min 0 min 0,0 UV-I 0 W/m 0,0 km/h (0 Bft)
11.03.2014 02:04 7,1 C 5,6 C 91 % 1027,7 hPa 0,0 l/m 0 min 0 min 0,0 UV-I 0 W/m 2,6 km/h (1 Bft)
11.03.2014 02:06 7,1 C 5,6 C 91 % 1027,7 hPa 0,0 l/m 0 min 0 min 0,0 UV-I 0 W/m 7,7 km/h (2 Bft)
11.03.2014 02:08 7,1 C 5,6 C 91 % 1027,7 hPa 0,0 l/m 0 min 0 min 0,0 UV-I 0 W/m 7,7 km/h (2 Bft)
11.03.2014 02:10 7,0 C 5,6 C 91 % 1027,7 hPa 0,0 l/m 0 min 0 min 0,0 UV-I 0 W/m 10,3 km/h (2 Bft)
11.03.2014 02:12 7,0 C 5,6 C 91 % 1027,7 hPa 0,0 l/m 0 min 0 min 0,0 UV-I 0 W/m 0,0 km/h (0 Bft)
11.03.2014 02:14 6,9 C 5,6 C 91 % 1027,7 hPa 0,0 l/m 0 min 0 min 0,0 UV-I 0 W/m 2,6 km/h (1 Bft)
11.03.2014 02:16 6,9 C 5,6 C 91 % 1027,6 hPa 0,0 l/m 0 min 0 min 0,0 UV-I 0 W/m 2,6 km/h (1 Bft)
11.03.2014 02:18 6,9 C 5,6 C 91 % 1027,6 hPa 0,0 l/m 0 min 0 min 0,0 UV-I 0 W/m 0,0 km/h (0 Bft)
11.03.2014 02:20 6,8 C 5,6 C 92 % 1027,6 hPa 0,0 l/m 0 min 0 min 0,0 UV-I 0 W/m 5,1 km/h (1 Bft)
11.03.2014 02:22 6,8 C 5,6 C 92 % 1027,6 hPa 0,0 l/m 0 min 0 min 0,0 UV-I 0 W/m 7,7 km/h (2 Bft)
11.03.2014 02:24 6,7 C 5,6 C 92 % 1027,6 hPa 0,0 l/m 0 min 0 min 0,0 UV-I 0 W/m 7,7 km/h (2 Bft)
11.03.2014 02:26 6,7 C 5,6 C 92 % 1027,6 hPa 0,0 l/m 0 min 0 min 0,0 UV-I 0 W/m 5,1 km/h (1 Bft)
11.03.2014 02:28 6,7 C 5,6 C 92 % 1027,6 hPa 0,0 l/m 0 min 0 min 0,0 UV-I 0 W/m 12,9 km/h (3 Bft)
11.03.2014 02:30 6,7 C 5,0 C 92 % 1027,6 hPa 0,0 l/m 0 min 0 min 0,0 UV-I 0 W/m 10,3 km/h (2 Bft)
11.03.2014 02:32 6,6 C 5,0 C 92 % 1027,5 hPa 0,0 l/m 0 min 0 min 0,0 UV-I 0 W/m 7,7 km/h (2 Bft)
11.03.2014 02:34 6,6 C 5,0 C 92 % 1027,5 hPa 0,0 l/m 0 min 0 min 0,0 UV-I 0 W/m 12,9 km/h (3 Bft)
11.03.2014 02:36 6,5 C 5,0 C 92 % 1027,6 hPa 0,0 l/m 0 min 0 min 0,0 UV-I 0 W/m 10,3 km/h (2 Bft)
11.03.2014 02:38 6,5 C 5,0 C 92 % 1027,6 hPa 0,0 l/m 0 min 0 min 0,0 UV-I 0 W/m 12,9 km/h (3 Bft)
11.03.2014 02:40 6,4 C 5,0 C 92 % 1027,7 hPa 0,0 l/m 0 min 0 min 0,0 UV-I 0 W/m 10,3 km/h (2 Bft)
11.03.2014 02:42 6,4 C 5,0 C 92 % 1027,7 hPa 0,0 l/m 0 min 0 min 0,0 UV-I 0 W/m 7,7 km/h (2 Bft)
11.03.2014 02:44 6,4 C 5,0 C 93 % 1027,7 hPa 0,0 l/m 0 min 0 min 0,0 UV-I 0 W/m 5,1 km/h (1 Bft)
11.03.2014 02:46 6,4 C 5,0 C 93 % 1027,7 hPa 0,0 l/m 0 min 0 min 0,0 UV-I 0 W/m 12,9 km/h (3 Bft)
11.03.2014 02:48 6,4 C 5,0 C 93 % 1027,8 hPa 0,0 l/m 0 min 0 min 0,0 UV-I 0 W/m 10,3 km/h (2 Bft)
11.03.2014 02:50 6,3 C 5,0 C 93 % 1027,8 hPa 0,0 l/m 0 min 0 min 0,0 UV-I 0 W/m 10,3 km/h (2 Bft)
11.03.2014 02:52 6,3 C 5,0 C 93 % 1027,8 hPa 0,0 l/m 0 min 0 min 0,0 UV-I 0 W/m 10,3 km/h (2 Bft)
11.03.2014 02:54 6,3 C 5,0 C 93 % 1027,8 hPa 0,0 l/m 0 min 0 min 0,0 UV-I 0 W/m 7,7 km/h (2 Bft)
11.03.2014 02:56 6,2 C 5,0 C 93 % 1027,9 hPa 0,0 l/m 0 min 0 min 0,0 UV-I 0 W/m 0,0 km/h (0 Bft)
11.03.2014 02:58 6,2 C 5,0 C 93 % 1027,9 hPa 0,0 l/m 0 min 0 min 0,0 UV-I 0 W/m 0,0 km/h (0 Bft)
11.03.2014 03:00 6,1 C 5,0 C 93 % 1027,9 hPa 0,0 l/m 0 min 0 min 0,0 UV-I 0 W/m 0,0 km/h (0 Bft)
11.03.2014 03:02 6,0 C 4,4 C 93 % 1027,8 hPa 0,0 l/m 0 min 0 min 0,0 UV-I 0 W/m 2,6 km/h (1 Bft)
11.03.2014 03:04 5,9 C 4,4 C 93 % 1027,8 hPa 0,0 l/m 0 min 0 min 0,0 UV-I 0 W/m 0,0 km/h (0 Bft)
11.03.2014 03:06 5,9 C 4,4 C 93 % 1027,8 hPa 0,0 l/m 0 min 0 min 0,0 UV-I 0 W/m 0,0 km/h (0 Bft)
11.03.2014 03:08 5,9 C 4,4 C 93 % 1027,8 hPa 0,0 l/m 0 min 0 min 0,0 UV-I 0 W/m 7,7 km/h (2 Bft)
11.03.2014 03:10 5,8 C 4,4 C 93 % 1027,9 hPa 0,0 l/m 0 min 0 min 0,0 UV-I 0 W/m 2,6 km/h (1 Bft)
11.03.2014 03:12 5,8 C 4,4 C 94 % 1027,9 hPa 0,0 l/m 0 min 0 min 0,0 UV-I 0 W/m 10,3 km/h (2 Bft)
11.03.2014 03:14 5,7 C 4,4 C 94 % 1027,9 hPa 0,0 l/m 0 min 0 min 0,0 UV-I 0 W/m 7,7 km/h (2 Bft)
11.03.2014 03:16 5,7 C 4,4 C 94 % 1027,9 hPa 0,0 l/m 0 min 0 min 0,0 UV-I 0 W/m 5,1 km/h (1 Bft)
11.03.2014 03:18 5,7 C 4,4 C 94 % 1027,9 hPa 0,0 l/m 0 min 0 min 0,0 UV-I 0 W/m 2,6 km/h (1 Bft)
11.03.2014 03:20 5,7 C 4,4 C 94 % 1027,9 hPa 0,0 l/m 0 min 0 min 0,0 UV-I 0 W/m 0,0 km/h (0 Bft)
11.03.2014 03:22 5,6 C 4,4 C 94 % 1028,0 hPa 0,0 l/m 0 min 0 min 0,0 UV-I 0 W/m 2,6 km/h (1 Bft)
11.03.2014 03:24 5,6 C 4,4 C 94 % 1028,0 hPa 0,0 l/m 0 min 0 min 0,0 UV-I 0 W/m 10,3 km/h (2 Bft)
11.03.2014 03:26 5,6 C 4,4 C 94 % 1028,0 hPa 0,0 l/m 0 min 0 min 0,0 UV-I 0 W/m 12,9 km/h (3 Bft)
11.03.2014 03:28 5,7 C 4,4 C 94 % 1028,0 hPa 0,0 l/m 0 min 0 min 0,0 UV-I 0 W/m 12,9 km/h (3 Bft)
11.03.2014 03:30 5,7 C 4,4 C 94 % 1028,0 hPa 0,0 l/m 0 min 0 min 0,0 UV-I 0 W/m 10,3 km/h (2 Bft)
11.03.2014 03:32 5,7 C 4,4 C 94 % 1027,9 hPa 0,0 l/m 0 min 0 min 0,0 UV-I 0 W/m 10,3 km/h (2 Bft)
11.03.2014 03:34 5,7 C 4,4 C 94 % 1027,9 hPa 0,0 l/m 0 min 0 min 0,0 UV-I 0 W/m 10,3 km/h (2 Bft)
11.03.2014 03:36 5,8 C 5,0 C 95 % 1027,9 hPa 0,0 l/m 0 min 0 min 0,0 UV-I 0 W/m 7,7 km/h (2 Bft)
11.03.2014 03:38 5,8 C 5,0 C 95 % 1027,8 hPa 0,0 l/m 0 min 0 min 0,0 UV-I 0 W/m 7,7 km/h (2 Bft)
11.03.2014 03:40 5,8 C 5,0 C 95 % 1028,0 hPa 0,0 l/m 0 min 0 min 0,0 UV-I 0 W/m 12,9 km/h (3 Bft)
11.03.2014 03:42 5,8 C 5,0 C 95 % 1027,9 hPa 0,0 l/m 0 min 0 min 0,0 UV-I 0 W/m 0,0 km/h (0 Bft)
11.03.2014 03:44 5,8 C 5,0 C 95 % 1028,0 hPa 0,0 l/m 0 min 0 min 0,0 UV-I 0 W/m 5,1 km/h (1 Bft)
11.03.2014 03:46 5,8 C 5,0 C 95 % 1027,9 hPa 0,0 l/m 0 min 0 min 0,0 UV-I 0 W/m 15,4 km/h (3 Bft)
11.03.2014 03:48 5,9 C 5,0 C 95 % 1027,9 hPa 0,0 l/m 0 min 0 min 0,0 UV-I 0 W/m 7,7 km/h (2 Bft)
11.03.2014 03:50 5,9 C 5,0 C 95 % 1027,9 hPa 0,0 l/m 0 min 0 min 0,0 UV-I 0 W/m 7,7 km/h (2 Bft)
11.03.2014 03:52 5,9 C 5,0 C 95 % 1028,0 hPa 0,0 l/m 0 min 0 min 0,0 UV-I 0 W/m 10,3 km/h (2 Bft)
11.03.2014 03:54 5,9 C 5,0 C 95 % 1028,0 hPa 0,0 l/m 0 min 0 min 0,0 UV-I 0 W/m 7,7 km/h (2 Bft)
11.03.2014 03:56 5,9 C 5,0 C 95 % 1028,0 hPa 0,0 l/m 0 min 0 min 0,0 UV-I 0 W/m 10,3 km/h (2 Bft)
11.03.2014 03:58 5,9 C 5,0 C 95 % 1028,1 hPa 0,0 l/m 0 min 0 min 0,0 UV-I 0 W/m 10,3 km/h (2 Bft)
11.03.2014 04:00 5,9 C 5,0 C 95 % 1028,0 hPa 0,0 l/m 0 min 0 min 0,0 UV-I 0 W/m 10,3 km/h (2 Bft)
11.03.2014 04:02 5,9 C 5,0 C 95 % 1028,1 hPa 0,0 l/m 0 min 0 min 0,0 UV-I 0 W/m 15,4 km/h (3 Bft)
11.03.2014 04:04 5,9 C 5,0 C 95 % 1028,0 hPa 0,0 l/m 0 min 0 min 0,0 UV-I 0 W/m 12,9 km/h (3 Bft)
11.03.2014 04:06 5,9 C 5,0 C 95 % 1028,0 hPa 0,0 l/m 0 min 0 min 0,0 UV-I 0 W/m 10,3 km/h (2 Bft)
11.03.2014 04:08 5,9 C 5,0 C 95 % 1028,1 hPa 0,0 l/m 0 min 0 min 0,0 UV-I 0 W/m 10,3 km/h (2 Bft)
11.03.2014 04:10 5,9 C 5,0 C 95 % 1028,0 hPa 0,0 l/m 0 min 0 min 0,0 UV-I 0 W/m 2,6 km/h (1 Bft)
11.03.2014 04:12 5,9 C 5,0 C 95 % 1028,1 hPa 0,0 l/m 0 min 0 min 0,0 UV-I 0 W/m 10,3 km/h (2 Bft)
11.03.2014 04:14 5,9 C 5,0 C 95 % 1028,1 hPa 0,0 l/m 0 min 0 min 0,0 UV-I 0 W/m 5,1 km/h (1 Bft)
11.03.2014 04:16 5,9 C 5,0 C 95 % 1028,0 hPa 0,0 l/m 0 min 0 min 0,0 UV-I 0 W/m 10,3 km/h (2 Bft)
11.03.2014 04:18 5,9 C 5,0 C 95 % 1028,1 hPa 0,0 l/m 0 min 0 min 0,0 UV-I 0 W/m 12,9 km/h (3 Bft)
11.03.2014 04:20 5,9 C 5,0 C 95 % 1028,3 hPa 0,0 l/m 0 min 0 min 0,0 UV-I 0 W/m 5,1 km/h (1 Bft)
11.03.2014 04:22 5,9 C 5,0 C 95 % 1028,2 hPa 0,0 l/m 0 min 0 min 0,0 UV-I 0 W/m 10,3 km/h (2 Bft)
11.03.2014 04:24 5,9 C 5,0 C 95 % 1028,2 hPa 0,0 l/m 0 min 0 min 0,0 UV-I 0 W/m 12,9 km/h (3 Bft)
11.03.2014 04:26 5,9 C 5,0 C 95 % 1028,2 hPa 0,0 l/m 0 min 0 min 0,0 UV-I 0 W/m 2,6 km/h (1 Bft)
11.03.2014 04:28 5,9 C 5,0 C 95 % 1028,3 hPa 0,0 l/m 0 min 0 min 0,0 UV-I 0 W/m 2,6 km/h (1 Bft)
11.03.2014 04:30 5,9 C 5,0 C 96 % 1028,2 hPa 0,0 l/m 0 min 0 min 0,0 UV-I 0 W/m 7,7 km/h (2 Bft)
11.03.2014 04:32 5,9 C 5,0 C 96 % 1028,2 hPa 0,0 l/m 0 min 0 min 0,0 UV-I 0 W/m 7,7 km/h (2 Bft)
11.03.2014 04:34 5,9 C 5,0 C 96 % 1028,2 hPa 0,0 l/m 0 min 0 min 0,0 UV-I 0 W/m 12,9 km/h (3 Bft)
11.03.2014 04:36 5,9 C 5,0 C 96 % 1028,3 hPa 0,0 l/m 0 min 0 min 0,0 UV-I 0 W/m 12,9 km/h (3 Bft)
11.03.2014 04:38 5,9 C 5,0 C 96 % 1028,2 hPa 0,0 l/m 0 min 0 min 0,0 UV-I 0 W/m 10,3 km/h (2 Bft)
11.03.2014 04:40 5,9 C 5,0 C 96 % 1028,2 hPa 0,0 l/m 0 min 0 min 0,0 UV-I 0 W/m 10,3 km/h (2 Bft)
11.03.2014 04:42 5,9 C 5,0 C 96 % 1028,2 hPa 0,0 l/m 0 min 0 min 0,0 UV-I 0 W/m 12,9 km/h (3 Bft)
11.03.2014 04:44 5,9 C 5,0 C 96 % 1028,2 hPa 0,0 l/m 0 min 0 min 0,0 UV-I 0 W/m 18,0 km/h (3 Bft)
11.03.2014 04:46 6,0 C 5,0 C 96 % 1028,2 hPa 0,0 l/m 0 min 0 min 0,0 UV-I 0 W/m 10,3 km/h (2 Bft)
11.03.2014 04:48 6,0 C 5,0 C 96 % 1028,3 hPa 0,0 l/m 0 min 0 min 0,0 UV-I 0 W/m 12,9 km/h (3 Bft)
11.03.2014 04:50 6,0 C 5,0 C 96 % 1028,4 hPa 0,0 l/m 0 min 0 min 0,0 UV-I 0 W/m 12,9 km/h (3 Bft)
11.03.2014 04:52 6,0 C 5,0 C 96 % 1028,4 hPa 0,0 l/m 0 min 0 min 0,0 UV-I 0 W/m 15,4 km/h (3 Bft)
11.03.2014 04:54 6,0 C 5,0 C 96 % 1028,4 hPa 0,0 l/m 0 min 0 min 0,0 UV-I 0 W/m 12,9 km/h (3 Bft)
11.03.2014 04:56 6,0 C 5,0 C 96 % 1028,3 hPa 0,0 l/m 0 min 0 min 0,0 UV-I 0 W/m 18,0 km/h (3 Bft)
11.03.2014 04:58 6,0 C 5,0 C 96 % 1028,3 hPa 0,0 l/m 0 min 0 min 0,0 UV-I 0 W/m 15,4 km/h (3 Bft)
11.03.2014 05:00 6,1 C 5,0 C 96 % 1028,4 hPa 0,0 l/m 0 min 0 min 0,0 UV-I 0 W/m 12,9 km/h (3 Bft)
11.03.2014 05:02 6,1 C 5,0 C 96 % 1028,3 hPa 0,0 l/m 0 min 0 min 0,0 UV-I 0 W/m 18,0 km/h (3 Bft)
11.03.2014 05:04 6,1 C 5,0 C 96 % 1028,3 hPa 0,0 l/m 0 min 0 min 0,0 UV-I 0 W/m 12,9 km/h (3 Bft)
11.03.2014 05:06 6,1 C 5,0 C 96 % 1028,2 hPa 0,0 l/m 0 min 0 min 0,0 UV-I 0 W/m 12,9 km/h (3 Bft)
11.03.2014 05:08 6,1 C 5,0 C 96 % 1028,2 hPa 0,0 l/m 0 min 0 min 0,0 UV-I 0 W/m 10,3 km/h (2 Bft)
11.03.2014 05:10 6,1 C 5,0 C 96 % 1028,2 hPa 0,0 l/m 0 min 0 min 0,0 UV-I 0 W/m 10,3 km/h (2 Bft)
11.03.2014 05:12 6,1 C 5,0 C 96 % 1028,2 hPa 0,0 l/m 0 min 0 min 0,0 UV-I 0 W/m 10,3 km/h (2 Bft)
11.03.2014 05:14 6,1 C 5,0 C 96 % 1028,2 hPa 0,0 l/m 0 min 0 min 0,0 UV-I 0 W/m 7,7 km/h (2 Bft)
11.03.2014 05:16 6,1 C 5,0 C 96 % 1028,3 hPa 0,0 l/m 0 min 0 min 0,0 UV-I 0 W/m 15,4 km/h (3 Bft)
11.03.2014 05:18 6,1 C 5,0 C 96 % 1028,3 hPa 0,0 l/m 0 min 0 min 0,0 UV-I 0 W/m 15,4 km/h (3 Bft)
11.03.2014 05:20 6,1 C 5,0 C 96 % 1028,3 hPa 0,0 l/m 0 min 0 min 0,0 UV-I 0 W/m 12,9 km/h (3 Bft)
11.03.2014 05:22 6,1 C 5,0 C 96 % 1028,4 hPa 0,0 l/m 0 min 0 min 0,0 UV-I 0 W/m 2,6 km/h (1 Bft)
11.03.2014 05:24 6,1 C 5,0 C 96 % 1028,5 hPa 0,0 l/m 0 min 0 min 0,0 UV-I 0 W/m 10,3 km/h (2 Bft)
11.03.2014 05:26 6,1 C 5,0 C 96 % 1028,5 hPa 0,0 l/m 0 min 0 min 0,0 UV-I 0 W/m 10,3 km/h (2 Bft)
11.03.2014 05:28 6,1 C 5,0 C 96 % 1028,5 hPa 0,0 l/m 0 min 0 min 0,0 UV-I 0 W/m 7,7 km/h (2 Bft)
11.03.2014 05:30 6,2 C 5,0 C 96 % 1028,5 hPa 0,0 l/m 0 min 0 min 0,0 UV-I 0 W/m 7,7 km/h (2 Bft)
11.03.2014 05:32 6,2 C 5,0 C 96 % 1028,5 hPa 0,0 l/m 0 min 0 min 0,0 UV-I 0 W/m 12,9 km/h (3 Bft)
11.03.2014 05:34 6,2 C 5,0 C 96 % 1028,5 hPa 0,0 l/m 0 min 0 min 0,0 UV-I 0 W/m 10,3 km/h (2 Bft)
11.03.2014 05:36 6,2 C 5,0 C 96 % 1028,5 hPa 0,0 l/m 0 min 0 min 0,0 UV-I 0 W/m 15,4 km/h (3 Bft)
11.03.2014 05:38 6,2 C 5,0 C 96 % 1028,4 hPa 0,0 l/m 0 min 0 min 0,0 UV-I 0 W/m 18,0 km/h (3 Bft)
11.03.2014 05:40 6,2 C 5,0 C 96 % 1028,5 hPa 0,0 l/m 0 min 0 min 0,0 UV-I 0 W/m 18,0 km/h (3 Bft)
11.03.2014 05:42 6,2 C 5,6 C 96 % 1028,5 hPa 0,0 l/m 0 min 0 min 0,0 UV-I 0 W/m 12,9 km/h (3 Bft)
11.03.2014 05:44 6,2 C 5,6 C 96 % 1028,5 hPa 0,0 l/m 0 min 0 min 0,0 UV-I 0 W/m 10,3 km/h (2 Bft)
11.03.2014 05:46 6,2 C 5,6 C 96 % 1028,6 hPa 0,0 l/m 0 min 0 min 0,0 UV-I 0 W/m 10,3 km/h (2 Bft)
11.03.2014 05:48 6,2 C 5,6 C 96 % 1028,8 hPa 0,0 l/m 0 min 0 min 0,0 UV-I 0 W/m 5,1 km/h (1 Bft)
11.03.2014 05:50 6,2 C 5,6 C 96 % 1028,9 hPa 0,0 l/m 0 min 0 min 0,0 UV-I 0 W/m 7,7 km/h (2 Bft)
11.03.2014 05:52 6,3 C 5,6 C 96 % 1028,9 hPa 0,0 l/m 0 min 0 min 0,0 UV-I 0 W/m 0,0 km/h (0 Bft)
11.03.2014 05:54 6,3 C 5,6 C 96 % 1029,0 hPa 0,0 l/m 0 min 0 min 0,0 UV-I 0 W/m 0,0 km/h (0 Bft)
11.03.2014 05:56 6,3 C 5,6 C 96 % 1029,0 hPa 0,0 l/m 0 min 0 min 0,0 UV-I 0 W/m 0,0 km/h (0 Bft)
11.03.2014 05:58 6,3 C 5,6 C 96 % 1029,0 hPa 0,0 l/m 0 min 0 min 0,0 UV-I 0 W/m 2,6 km/h (1 Bft)
11.03.2014 06:00 6,3 C 5,6 C 96 % 1029,0 hPa 0,0 l/m 0 min 0 min 0,0 UV-I 0 W/m 12,9 km/h (3 Bft)
11.03.2014 06:02 6,3 C 5,6 C 96 % 1029,0 hPa 0,0 l/m 0 min 0 min 0,0 UV-I 0 W/m 12,9 km/h (3 Bft)
11.03.2014 06:04 6,3 C 5,6 C 96 % 1029,0 hPa 0,0 l/m 0 min 0 min 0,0 UV-I 0 W/m 15,4 km/h (3 Bft)
11.03.2014 06:06 6,3 C 5,6 C 96 % 1029,0 hPa 0,0 l/m 0 min 0 min 0,0 UV-I 0 W/m 7,7 km/h (2 Bft)
11.03.2014 06:08 6,4 C 5,6 C 96 % 1028,9 hPa 0,0 l/m 0 min 0 min 0,0 UV-I 0 W/m 7,7 km/h (2 Bft)
11.03.2014 06:10 6,4 C 5,6 C 96 % 1029,0 hPa 0,0 l/m 0 min 0 min 0,0 UV-I 0 W/m 5,1 km/h (1 Bft)
11.03.2014 06:12 6,4 C 5,6 C 95 % 1029,0 hPa 0,0 l/m 0 min 0 min 0,0 UV-I 0 W/m 0,0 km/h (0 Bft)
11.03.2014 06:14 6,4 C 5,6 C 95 % 1029,1 hPa 0,0 l/m 0 min 0 min 0,0 UV-I 0 W/m 2,6 km/h (1 Bft)
11.03.2014 06:16 6,4 C 5,6 C 95 % 1029,2 hPa 0,0 l/m 0 min 0 min 0,0 UV-I 0 W/m 0,0 km/h (0 Bft)
11.03.2014 06:18 6,4 C 5,6 C 95 % 1029,1 hPa 0,0 l/m 0 min 0 min 0,0 UV-I 0 W/m 0,0 km/h (0 Bft)
11.03.2014 06:20 6,4 C 5,6 C 95 % 1029,3 hPa 0,0 l/m 0 min 0 min 0,0 UV-I 0 W/m 0,0 km/h (0 Bft)
11.03.2014 06:22 6,4 C 5,6 C 95 % 1029,3 hPa 0,0 l/m 0 min 0 min 0,0 UV-I 0 W/m 0,0 km/h (0 Bft)
11.03.2014 06:24 6,4 C 5,6 C 95 % 1029,3 hPa 0,0 l/m 0 min 0 min 0,0 UV-I 0 W/m 0,0 km/h (0 Bft)
11.03.2014 06:26 6,4 C 5,6 C 95 % 1029,3 hPa 0,0 l/m 0 min 0 min 0,0 UV-I 0 W/m 2,6 km/h (1 Bft)
11.03.2014 06:28 6,4 C 5,6 C 95 % 1029,2 hPa 0,0 l/m 0 min 0 min 0,0 UV-I 0 W/m 0,0 km/h (0 Bft)
11.03.2014 06:30 6,4 C 5,6 C 95 % 1029,3 hPa 0,0 l/m 0 min 0 min 0,0 UV-I 0 W/m 7,7 km/h (2 Bft)
11.03.2014 06:32 6,4 C 5,6 C 95 % 1029,3 hPa 0,0 l/m 0 min 0 min 0,0 UV-I 0 W/m 7,7 km/h (2 Bft)
11.03.2014 06:34 6,4 C 5,6 C 95 % 1029,2 hPa 0,0 l/m 0 min 0 min 0,0 UV-I 0 W/m 18,0 km/h (3 Bft)
11.03.2014 06:36 6,4 C 5,6 C 95 % 1029,2 hPa 0,0 l/m 0 min 0 min 0,0 UV-I 0 W/m 10,3 km/h (2 Bft)
11.03.2014 06:38 6,4 C 5,6 C 95 % 1029,3 hPa 0,0 l/m 0 min 0 min 0,0 UV-I 0 W/m 7,7 km/h (2 Bft)
11.03.2014 06:40 6,5 C 5,6 C 95 % 1029,2 hPa 0,0 l/m 0 min 0 min 0,0 UV-I 0 W/m 0,0 km/h (0 Bft)
11.03.2014 06:42 6,5 C 5,6 C 95 % 1029,3 hPa 0,0 l/m 0 min 0 min 0,0 UV-I 0 W/m 0,0 km/h (0 Bft)
11.03.2014 06:44 6,5 C 5,6 C 95 % 1029,3 hPa 0,0 l/m 0 min 0 min 0,0 UV-I 0 W/m 5,1 km/h (1 Bft)
11.03.2014 06:46 6,5 C 5,6 C 95 % 1029,4 hPa 0,0 l/m 0 min 0 min 0,0 UV-I 0 W/m 0,0 km/h (0 Bft)
11.03.2014 06:48 6,5 C 5,6 C 95 % 1029,4 hPa 0,0 l/m 0 min 0 min 0,0 UV-I 0 W/m 10,3 km/h (2 Bft)
11.03.2014 06:50 6,5 C 5,6 C 95 % 1029,3 hPa 0,0 l/m 0 min 0 min 0,0 UV-I 0 W/m 10,3 km/h (2 Bft)
11.03.2014 06:52 6,5 C 5,6 C 95 % 1029,4 hPa 0,0 l/m 0 min 0 min 0,0 UV-I 0 W/m 10,3 km/h (2 Bft)
11.03.2014 06:54 6,5 C 5,6 C 95 % 1029,4 hPa 0,0 l/m 0 min 0 min 0,0 UV-I 0 W/m 7,7 km/h (2 Bft)
11.03.2014 06:56 6,5 C 5,6 C 95 % 1029,5 hPa 0,0 l/m 0 min 0 min 0,0 UV-I 0 W/m 7,7 km/h (2 Bft)
11.03.2014 06:58 6,5 C 5,6 C 95 % 1029,5 hPa 0,0 l/m 0 min 0 min 0,0 UV-I 0 W/m 0,0 km/h (0 Bft)
11.03.2014 07:00 6,5 C 5,6 C 95 % 1029,5 hPa 0,0 l/m 0 min 0 min 0,0 UV-I 0 W/m 0,0 km/h (0 Bft)
11.03.2014 07:02 6,6 C 5,6 C 95 % 1029,5 hPa 0,0 l/m 0 min 0 min 0,0 UV-I 0 W/m 0,0 km/h (0 Bft)
11.03.2014 07:04 6,6 C 5,6 C 95 % 1029,5 hPa 0,0 l/m 0 min 0 min 0,0 UV-I 5 W/m 0,0 km/h (0 Bft)
11.03.2014 07:06 6,6 C 5,6 C 95 % 1029,6 hPa 0,0 l/m 0 min 0 min 0,0 UV-I 5 W/m 7,7 km/h (2 Bft)
11.03.2014 07:08 6,6 C 5,6 C 95 % 1029,6 hPa 0,0 l/m 0 min 0 min 0,0 UV-I 5 W/m 7,7 km/h (2 Bft)
11.03.2014 07:10 6,6 C 5,6 C 95 % 1029,5 hPa 0,0 l/m 0 min 0 min 0,0 UV-I 5 W/m 12,9 km/h (3 Bft)
11.03.2014 07:12 6,6 C 5,6 C 95 % 1029,6 hPa 0,0 l/m 0 min 0 min 0,0 UV-I 7 W/m 7,7 km/h (2 Bft)
11.03.2014 07:14 6,6 C 5,6 C 95 % 1029,6 hPa 0,0 l/m 0 min 0 min 0,0 UV-I 7 W/m 10,3 km/h (2 Bft)
11.03.2014 07:16 6,6 C 5,6 C 95 % 1029,6 hPa 0,0 l/m 0 min 0 min 0,0 UV-I 7 W/m 7,7 km/h (2 Bft)
11.03.2014 07:18 6,6 C 5,6 C 94 % 1029,7 hPa 0,0 l/m 0 min 0 min 0,0 UV-I 9 W/m 10,3 km/h (2 Bft)
11.03.2014 07:20 6,6 C 5,6 C 94 % 1029,7 hPa 0,0 l/m 0 min 0 min 0,0 UV-I 9 W/m 7,7 km/h (2 Bft)
11.03.2014 07:22 6,6 C 5,6 C 94 % 1029,8 hPa 0,0 l/m 0 min 0 min 0,0 UV-I 11 W/m 10,3 km/h (2 Bft)
11.03.2014 07:24 6,6 C 5,6 C 94 % 1029,9 hPa 0,0 l/m 0 min 0 min 0,0 UV-I 11 W/m 12,9 km/h (3 Bft)
11.03.2014 07:26 6,6 C 5,6 C 94 % 1029,9 hPa 0,0 l/m 0 min 0 min 0,0 UV-I 12 W/m 0,0 km/h (0 Bft)
11.03.2014 07:28 6,6 C 5,6 C 94 % 1029,9 hPa 0,0 l/m 0 min 0 min 0,0 UV-I 12 W/m 10,3 km/h (2 Bft)
11.03.2014 07:30 6,6 C 5,6 C 94 % 1029,9 hPa 0,0 l/m 0 min 0 min 0,0 UV-I 16 W/m 7,7 km/h (2 Bft)
11.03.2014 07:32 6,7 C 5,6 C 94 % 1029,9 hPa 0,0 l/m 0 min 0 min 0,0 UV-I 19 W/m 7,7 km/h (2 Bft)
11.03.2014 07:34 6,7 C 5,6 C 94 % 1029,9 hPa 0,0 l/m 0 min 0 min 0,0 UV-I 19 W/m 7,7 km/h (2 Bft)
11.03.2014 07:36 6,7 C 5,6 C 94 % 1029,9 hPa 0,0 l/m 0 min 0 min 0,0 UV-I 19 W/m 5,1 km/h (1 Bft)
11.03.2014 07:38 6,7 C 5,6 C 94 % 1030,0 hPa 0,0 l/m 0 min 0 min 0,0 UV-I 21 W/m 7,7 km/h (2 Bft)
11.03.2014 07:40 6,7 C 5,6 C 94 % 1030,0 hPa 0,0 l/m 0 min 0 min 0,0 UV-I 21 W/m 7,7 km/h (2 Bft)
11.03.2014 07:42 6,7 C 5,6 C 94 % 1030,0 hPa 0,0 l/m 0 min 0 min 0,0 UV-I 25 W/m 12,9 km/h (3 Bft)
11.03.2014 07:44 6,7 C 6,1 C 94 % 1030,0 hPa 0,0 l/m 0 min 0 min 0,0 UV-I 32 W/m 10,3 km/h (2 Bft)
11.03.2014 07:46 6,7 C 6,1 C 94 % 1030,0 hPa 0,0 l/m 0 min 0 min 0,0 UV-I 28 W/m 10,3 km/h (2 Bft)
11.03.2014 07:48 6,7 C 6,1 C 94 % 1030,1 hPa 0,0 l/m 0 min 0 min 0,0 UV-I 28 W/m 10,3 km/h (2 Bft)
11.03.2014 07:50 6,7 C 6,1 C 94 % 1030,0 hPa 0,0 l/m 0 min 0 min 0,0 UV-I 32 W/m 10,3 km/h (2 Bft)
11.03.2014 07:52 6,8 C 6,1 C 94 % 1030,0 hPa 0,0 l/m 0 min 0 min 0,0 UV-I 30 W/m 10,3 km/h (2 Bft)
11.03.2014 07:54 6,8 C 6,1 C 94 % 1030,0 hPa 0,0 l/m 0 min 0 min 0,0 UV-I 30 W/m 0,0 km/h (0 Bft)
11.03.2014 07:56 6,8 C 6,1 C 94 % 1030,0 hPa 0,0 l/m 0 min 0 min 0,0 UV-I 39 W/m 12,9 km/h (3 Bft)
11.03.2014 07:58 6,8 C 6,1 C 94 % 1030,1 hPa 0,0 l/m 0 min 0 min 0,0 UV-I 47 W/m 12,9 km/h (3 Bft)
11.03.2014 08:00 6,8 C 6,1 C 94 % 1030,1 hPa 0,0 l/m 0 min 0 min 0,0 UV-I 54 W/m 10,3 km/h (2 Bft)
11.03.2014 08:02 6,8 C 6,1 C 94 % 1030,1 hPa 0,0 l/m 0 min 0 min 0,0 UV-I 49 W/m 10,3 km/h (2 Bft)
11.03.2014 08:04 6,8 C 6,1 C 94 % 1030,1 hPa 0,0 l/m 0 min 0 min 0,0 UV-I 44 W/m 12,9 km/h (3 Bft)
11.03.2014 08:06 6,8 C 6,1 C 94 % 1030,2 hPa 0,0 l/m 0 min 0 min 0,0 UV-I 53 W/m 12,9 km/h (3 Bft)
11.03.2014 08:08 6,8 C 6,1 C 94 % 1030,3 hPa 0,0 l/m 0 min 0 min 0,0 UV-I 63 W/m 15,4 km/h (3 Bft)
11.03.2014 08:10 6,9 C 6,1 C 94 % 1030,3 hPa 0,0 l/m 0 min 0 min 0,0 UV-I 63 W/m 5,1 km/h (1 Bft)
11.03.2014 08:12 6,9 C 6,1 C 94 % 1030,2 hPa 0,0 l/m 0 min 0 min 0,0 UV-I 62 W/m 12,9 km/h (3 Bft)
11.03.2014 08:14 6,9 C 6,1 C 93 % 1030,3 hPa 0,0 l/m 0 min 0 min 0,0 UV-I 70 W/m 10,3 km/h (2 Bft)
11.03.2014 08:16 6,9 C 6,1 C 93 % 1030,3 hPa 0,0 l/m 0 min 0 min 0,0 UV-I 72 W/m 10,3 km/h (2 Bft)
11.03.2014 08:18 7,0 C 6,1 C 93 % 1030,3 hPa 0,0 l/m 0 min 0 min 0,0 UV-I 72 W/m 2,6 km/h (1 Bft)
11.03.2014 08:20 7,0 C 6,7 C 93 % 1030,4 hPa 0,0 l/m 0 min 0 min 0,0 UV-I 81 W/m 12,9 km/h (3 Bft)
11.03.2014 08:22 7,1 C 6,7 C 93 % 1030,4 hPa 0,0 l/m 0 min 0 min 0,0 UV-I 102 W/m 10,3 km/h (2 Bft)
11.03.2014 08:24 7,1 C 6,7 C 93 % 1030,4 hPa 0,0 l/m 0 min 0 min 0,0 UV-I 97 W/m 12,9 km/h (3 Bft)
11.03.2014 08:26 7,1 C 6,7 C 93 % 1030,4 hPa 0,0 l/m 0 min 0 min 0,0 UV-I 114 W/m 10,3 km/h (2 Bft)
11.03.2014 08:28 7,1 C 6,7 C 93 % 1030,4 hPa 0,0 l/m 0 min 0 min 0,0 UV-I 95 W/m 10,3 km/h (2 Bft)
11.03.2014 08:30 7,1 C 6,7 C 93 % 1030,4 hPa 0,0 l/m 0 min 0 min 0,0 UV-I 84 W/m 10,3 km/h (2 Bft)
11.03.2014 08:32 7,2 C 6,7 C 93 % 1030,5 hPa 0,0 l/m 0 min 0 min 0,0 UV-I 90 W/m 10,3 km/h (2 Bft)
11.03.2014 08:34 7,2 C 6,7 C 93 % 1030,5 hPa 0,0 l/m 0 min 0 min 0,0 UV-I 105 W/m 15,4 km/h (3 Bft)
11.03.2014 08:36 7,2 C 6,7 C 93 % 1030,5 hPa 0,0 l/m 0 min 0 min 0,0 UV-I 120 W/m 7,7 km/h (2 Bft)
11.03.2014 08:38 7,2 C 6,7 C 93 % 1030,5 hPa 0,0 l/m 0 min 0 min 0,0 UV-I 107 W/m 7,7 km/h (2 Bft)
11.03.2014 08:40 7,3 C 6,7 C 92 % 1030,4 hPa 0,0 l/m 0 min 0 min 0,0 UV-I 111 W/m 7,7 km/h (2 Bft)
11.03.2014 08:42 7,3 C 6,7 C 92 % 1030,4 hPa 0,0 l/m 0 min 0 min 0,0 UV-I 114 W/m 18,0 km/h (3 Bft)
11.03.2014 08:44 7,3 C 6,7 C 92 % 1030,6 hPa 0,0 l/m 0 min 0 min 0,0 UV-I 91 W/m 12,9 km/h (3 Bft)
11.03.2014 08:46 7,3 C 6,7 C 92 % 1030,6 hPa 0,0 l/m 0 min 0 min 0,0 UV-I 107 W/m 12,9 km/h (3 Bft)
11.03.2014 08:48 7,3 C 6,7 C 92 % 1030,6 hPa 0,0 l/m 0 min 0 min 0,0 UV-I 109 W/m 10,3 km/h (2 Bft)
11.03.2014 08:50 7,3 C 6,7 C 92 % 1030,7 hPa 0,0 l/m 0 min 0 min 0,0 UV-I 111 W/m 15,4 km/h (3 Bft)
11.03.2014 08:52 7,4 C 6,7 C 92 % 1030,7 hPa 0,0 l/m 0 min 0 min 0,0 UV-I 105 W/m 10,3 km/h (2 Bft)
11.03.2014 08:54 7,4 C 6,7 C 92 % 1030,7 hPa 0,0 l/m 0 min 0 min 0,0 UV-I 109 W/m 10,3 km/h (2 Bft)
11.03.2014 08:56 7,4 C 6,7 C 92 % 1030,7 hPa 0,0 l/m 0 min 0 min 0,0 UV-I 105 W/m 10,3 km/h (2 Bft)
11.03.2014 08:58 7,4 C 6,7 C 92 % 1030,7 hPa 0,0 l/m 0 min 0 min 0,0 UV-I 98 W/m 18,0 km/h (3 Bft)
11.03.2014 09:00 7,4 C 6,7 C 92 % 1030,7 hPa 0,0 l/m 0 min 0 min 0,0 UV-I 100 W/m 12,9 km/h (3 Bft)
11.03.2014 09:02 7,4 C 6,7 C 92 % 1030,7 hPa 0,0 l/m 0 min 0 min 0,0 UV-I 93 W/m 18,0 km/h (3 Bft)
11.03.2014 09:04 7,4 C 6,7 C 92 % 1030,8 hPa 0,0 l/m 0 min 0 min 0,0 UV-I 102 W/m 10,3 km/h (2 Bft)
11.03.2014 09:06 7,4 C 6,7 C 92 % 1030,8 hPa 0,0 l/m 0 min 0 min 0,0 UV-I 123 W/m 12,9 km/h (3 Bft)
11.03.2014 09:08 7,4 C 6,7 C 92 % 1030,8 hPa 0,0 l/m 0 min 0 min 0,0 UV-I 127 W/m 15,4 km/h (3 Bft)
11.03.2014 09:10 7,4 C 6,7 C 92 % 1030,9 hPa 0,0 l/m 0 min 0 min 0,0 UV-I 120 W/m 12,9 km/h (3 Bft)
11.03.2014 09:12 7,4 C 7,2 C 92 % 1030,8 hPa 0,0 l/m 0 min 0 min 0,0 UV-I 102 W/m 10,3 km/h (2 Bft)
11.03.2014 09:14 7,4 C 6,7 C 92 % 1030,9 hPa 0,0 l/m 0 min 0 min 0,0 UV-I 100 W/m 12,9 km/h (3 Bft)
11.03.2014 09:16 7,4 C 6,7 C 92 % 1030,9 hPa 0,0 l/m 0 min 0 min 0,0 UV-I 100 W/m 10,3 km/h (2 Bft)
11.03.2014 09:18 7,4 C 7,2 C 92 % 1030,9 hPa 0,0 l/m 0 min 0 min 0,0 UV-I 125 W/m 15,4 km/h (3 Bft)
11.03.2014 09:20 7,5 C 7,2 C 92 % 1030,9 hPa 0,0 l/m 0 min 0 min 0,0 UV-I 169 W/m 12,9 km/h (3 Bft)
11.03.2014 09:22 7,5 C 7,2 C 92 % 1030,8 hPa 0,0 l/m 0 min 0 min 0,0 UV-I 156 W/m 10,3 km/h (2 Bft)
11.03.2014 09:24 7,6 C 7,2 C 92 % 1030,9 hPa 0,0 l/m 0 min 0 min 0,0 UV-I 162 W/m 10,3 km/h (2 Bft)
11.03.2014 09:26 7,6 C 7,2 C 92 % 1030,8 hPa 0,0 l/m 0 min 0 min 0,0 UV-I 162 W/m 12,9 km/h (3 Bft)
11.03.2014 09:28 7,7 C 7,2 C 91 % 1030,8 hPa 0,0 l/m 0 min 0 min 0,0 UV-I 165 W/m 15,4 km/h (3 Bft)
11.03.2014 09:30 7,7 C 7,2 C 91 % 1030,9 hPa 0,0 l/m 0 min 0 min 0,0 UV-I 123 W/m 12,9 km/h (3 Bft)
11.03.2014 09:32 7,7 C 7,2 C 91 % 1030,9 hPa 0,0 l/m 0 min 0 min 0,0 UV-I 135 W/m 12,9 km/h (3 Bft)
11.03.2014 09:34 7,8 C 7,2 C 91 % 1031,0 hPa 0,0 l/m 0 min 0 min 0,0 UV-I 135 W/m 5,1 km/h (1 Bft)
11.03.2014 09:36 7,8 C 7,2 C 91 % 1030,9 hPa 0,0 l/m 0 min 0 min 0,0 UV-I 137 W/m 5,1 km/h (1 Bft)
11.03.2014 09:38 7,8 C 7,2 C 91 % 1031,0 hPa 0,0 l/m 0 min 0 min 0,0 UV-I 144 W/m 10,3 km/h (2 Bft)
11.03.2014 09:40 7,9 C 7,8 C 91 % 1031,0 hPa 0,0 l/m 2 min 0 min 0,0 UV-I 223 W/m 0,0 km/h (0 Bft)
11.03.2014 09:42 8,1 C 7,8 C 91 % 1031,0 hPa 0,0 l/m 2 min 0 min 0,0 UV-I 253 W/m 2,6 km/h (1 Bft)
11.03.2014 09:44 8,1 C 7,8 C 91 % 1031,0 hPa 0,0 l/m 2 min 0 min 0,0 UV-I 313 W/m 18,0 km/h (3 Bft)
11.03.2014 09:46 8,2 C 7,8 C 91 % 1031,0 hPa 0,0 l/m 2 min 0 min 0,0 UV-I 327 W/m 18,0 km/h (3 Bft)
11.03.2014 09:48 8,2 C 7,8 C 90 % 1030,9 hPa 0,0 l/m 2 min 0 min 0,0 UV-I 299 W/m 18,0 km/h (3 Bft)
11.03.2014 09:50 8,3 C 7,8 C 90 % 1030,9 hPa 0,0 l/m 2 min 0 min 0,0 UV-I 299 W/m 20,6 km/h (4 Bft)
11.03.2014 09:52 8,4 C 8,3 C 90 % 1031,0 hPa 0,0 l/m 2 min 0 min 0,0 UV-I 345 W/m 12,9 km/h (3 Bft)
11.03.2014 09:54 8,4 C 8,3 C 90 % 1031,0 hPa 0,0 l/m 2 min 0 min 0,0 UV-I 350 W/m 18,0 km/h (3 Bft)
11.03.2014 09:56 8,6 C 8,3 C 89 % 1031,0 hPa 0,0 l/m 2 min 0 min 0,0 UV-I 329 W/m 15,4 km/h (3 Bft)
11.03.2014 09:58 8,6 C 8,3 C 89 % 1031,0 hPa 0,0 l/m 2 min 0 min 0,0 UV-I 281 W/m 12,9 km/h (3 Bft)
11.03.2014 10:00 8,6 C 8,3 C 89 % 1031,0 hPa 0,0 l/m 2 min 0 min 0,0 UV-I 309 W/m 18,0 km/h (3 Bft)
11.03.2014 10:02 8,6 C 8,3 C 88 % 1031,0 hPa 0,0 l/m 2 min 0 min 0,0 UV-I 292 W/m 15,4 km/h (3 Bft)
11.03.2014 10:04 8,7 C 8,3 C 88 % 1031,0 hPa 0,0 l/m 2 min 0 min 0,0 UV-I 410 W/m 12,9 km/h (3 Bft)
11.03.2014 10:06 8,7 C 8,9 C 88 % 1031,0 hPa 0,0 l/m 2 min 0 min 0,0 UV-I 420 W/m 15,4 km/h (3 Bft)
11.03.2014 10:08 8,8 C 8,9 C 88 % 1031,0 hPa 0,0 l/m 2 min 0 min 0,0 UV-I 410 W/m 20,6 km/h (4 Bft)
11.03.2014 10:10 8,9 C 8,9 C 88 % 1031,0 hPa 0,0 l/m 2 min 0 min 0,0 UV-I 383 W/m 10,3 km/h (2 Bft)
11.03.2014 10:12 9,0 C 8,9 C 88 % 1031,0 hPa 0,0 l/m 2 min 0 min 0,0 UV-I 373 W/m 10,3 km/h (2 Bft)
11.03.2014 10:14 9,2 C 9,4 C 88 % 1031,0 hPa 0,0 l/m 2 min 0 min 0,0 UV-I 285 W/m 15,4 km/h (3 Bft)
11.03.2014 10:16 9,3 C 9,4 C 88 % 1031,0 hPa 0,0 l/m 2 min 0 min 0,0 UV-I 255 W/m 7,7 km/h (2 Bft)
11.03.2014 10:18 9,5 C 9,4 C 88 % 1031,0 hPa 0,0 l/m 2 min 0 min 0,0 UV-I 264 W/m 12,9 km/h (3 Bft)
11.03.2014 10:20 9,4 C 9,4 C 86 % 1031,0 hPa 0,0 l/m 2 min 0 min 0,5 UV-I 272 W/m 7,7 km/h (2 Bft)
11.03.2014 10:22 9,4 C 9,4 C 86 % 1031,0 hPa 0,0 l/m 2 min 0 min 0,0 UV-I 304 W/m 7,7 km/h (2 Bft)
11.03.2014 10:24 9,4 C 8,9 C 86 % 1031,0 hPa 0,0 l/m 2 min 0 min 0,5 UV-I 318 W/m 15,4 km/h (3 Bft)
11.03.2014 10:26 9,3 C 8,9 C 86 % 1031,0 hPa 0,0 l/m 2 min 0 min 0,5 UV-I 357 W/m 10,3 km/h (2 Bft)
11.03.2014 10:28 9,4 C 8,9 C 87 % 1031,1 hPa 0,0 l/m 2 min 0 min 0,5 UV-I 292 W/m 10,3 km/h (2 Bft)
11.03.2014 10:30 9,6 C 9,4 C 87 % 1031,1 hPa 0,0 l/m 2 min 0 min 0,6 UV-I 336 W/m 2,6 km/h (1 Bft)
11.03.2014 10:32 9,8 C 9,4 C 87 % 1031,1 hPa 0,0 l/m 2 min 0 min 0,6 UV-I 394 W/m 5,1 km/h (1 Bft)
11.03.2014 10:34 9,9 C 9,4 C 86 % 1031,1 hPa 0,0 l/m 2 min 0 min 0,7 UV-I 413 W/m 5,1 km/h (1 Bft)
11.03.2014 10:36 9,9 C 9,4 C 84 % 1031,1 hPa 0,0 l/m 2 min 0 min 0,7 UV-I 413 W/m 10,3 km/h (2 Bft)
11.03.2014 10:38 9,9 C 9,4 C 84 % 1031,1 hPa 0,0 l/m 2 min 0 min 0,7 UV-I 403 W/m 2,6 km/h (1 Bft)
11.03.2014 10:40 9,9 C 9,4 C 84 % 1031,1 hPa 0,0 l/m 2 min 0 min 0,7 UV-I 403 W/m 15,4 km/h (3 Bft)
11.03.2014 10:42 9,9 C 9,4 C 84 % 1031,2 hPa 0,0 l/m 2 min 0 min 0,7 UV-I 408 W/m 7,7 km/h (2 Bft)
11.03.2014 10:44 9,9 C 9,4 C 83 % 1031,1 hPa 0,0 l/m 2 min 0 min 0,7 UV-I 397 W/m 5,1 km/h (1 Bft)
11.03.2014 10:46 10,0 C 9,4 C 84 % 1031,1 hPa 0,0 l/m 2 min 0 min 0,7 UV-I 411 W/m 7,7 km/h (2 Bft)
11.03.2014 10:48 10,0 C 9,4 C 84 % 1031,1 hPa 0,0 l/m 2 min 0 min 0,7 UV-I 390 W/m 7,7 km/h (2 Bft)
11.03.2014 10:50 10,0 C 9,4 C 83 % 1031,1 hPa 0,0 l/m 2 min 0 min 0,7 UV-I 415 W/m 12,9 km/h (3 Bft)
11.03.2014 10:52 10,0 C 9,4 C 83 % 1031,2 hPa 0,0 l/m 2 min 0 min 0,7 UV-I 396 W/m 12,9 km/h (3 Bft)
11.03.2014 10:54 10,0 C 9,4 C 83 % 1031,2 hPa 0,0 l/m 2 min 0 min 0,7 UV-I 318 W/m 5,1 km/h (1 Bft)
11.03.2014 10:56 10,0 C 9,4 C 83 % 1031,2 hPa 0,0 l/m 2 min 0 min 0,8 UV-I 381 W/m 15,4 km/h (3 Bft)
11.03.2014 10:58 9,9 C 9,4 C 83 % 1031,2 hPa 0,0 l/m 2 min 0 min 0,8 UV-I 373 W/m 18,0 km/h (3 Bft)
11.03.2014 11:00 10,0 C 9,4 C 83 % 1031,3 hPa 0,0 l/m 2 min 0 min 0,8 UV-I 403 W/m 7,7 km/h (2 Bft)
11.03.2014 11:02 10,1 C 10,0 C 83 % 1031,2 hPa 0,0 l/m 2 min 0 min 0,8 UV-I 424 W/m 5,1 km/h (1 Bft)
11.03.2014 11:04 10,3 C 10,0 C 84 % 1031,2 hPa 0,0 l/m 2 min 0 min 0,9 UV-I 452 W/m 2,6 km/h (1 Bft)
11.03.2014 11:06 10,3 C 10,0 C 83 % 1031,2 hPa 0,0 l/m 2 min 0 min 0,9 UV-I 452 W/m 12,9 km/h (3 Bft)
11.03.2014 11:08 10,3 C 10,0 C 82 % 1031,3 hPa 0,0 l/m 2 min 0 min 0,9 UV-I 462 W/m 10,3 km/h (2 Bft)
11.03.2014 11:10 10,4 C 10,0 C 82 % 1031,3 hPa 0,0 l/m 2 min 0 min 0,8 UV-I 399 W/m 12,9 km/h (3 Bft)
11.03.2014 11:12 10,5 C 10,0 C 82 % 1031,3 hPa 0,0 l/m 2 min 0 min 0,8 UV-I 427 W/m 5,1 km/h (1 Bft)
11.03.2014 11:14 10,6 C 10,0 C 81 % 1031,4 hPa 0,0 l/m 2 min 0 min 0,9 UV-I 429 W/m 10,3 km/h (2 Bft)
11.03.2014 11:16 10,7 C 10,0 C 81 % 1031,3 hPa 0,0 l/m 2 min 0 min 0,9 UV-I 401 W/m 10,3 km/h (2 Bft)
11.03.2014 11:18 10,7 C 10,6 C 80 % 1031,2 hPa 0,0 l/m 2 min 0 min 0,9 UV-I 448 W/m 5,1 km/h (1 Bft)
11.03.2014 11:20 10,8 C 10,6 C 80 % 1031,3 hPa 0,0 l/m 2 min 0 min 1,0 UV-I 446 W/m 12,9 km/h (3 Bft)
11.03.2014 11:22 10,9 C 10,6 C 80 % 1031,3 hPa 0,0 l/m 2 min 0 min 1,0 UV-I 422 W/m 7,7 km/h (2 Bft)
11.03.2014 11:24 11,0 C 10,6 C 80 % 1031,3 hPa 0,0 l/m 2 min 0 min 0,9 UV-I 418 W/m 7,7 km/h (2 Bft)
11.03.2014 11:26 11,1 C 10,6 C 80 % 1031,2 hPa 0,0 l/m 2 min 0 min 1,0 UV-I 443 W/m 7,7 km/h (2 Bft)
11.03.2014 11:28 11,1 C 10,6 C 79 % 1031,3 hPa 0,0 l/m 2 min 0 min 1,0 UV-I 461 W/m 12,9 km/h (3 Bft)
11.03.2014 11:30 10,9 C 10,6 C 79 % 1031,3 hPa 0,0 l/m 2 min 0 min 1,0 UV-I 445 W/m 12,9 km/h (3 Bft)
11.03.2014 11:32 10,9 C 10,6 C 80 % 1031,2 hPa 0,0 l/m 2 min 0 min 1,0 UV-I 483 W/m 10,3 km/h (2 Bft)
11.03.2014 11:34 10,9 C 10,6 C 80 % 1031,2 hPa 0,0 l/m 2 min 0 min 1,0 UV-I 457 W/m 18,0 km/h (3 Bft)
11.03.2014 11:36 11,1 C 10,6 C 80 % 1031,2 hPa 0,0 l/m 2 min 0 min 1,0 UV-I 446 W/m 7,7 km/h (2 Bft)
11.03.2014 11:38 11,0 C 10,6 C 79 % 1031,2 hPa 0,0 l/m 2 min 0 min 1,1 UV-I 466 W/m 10,3 km/h (2 Bft)
11.03.2014 11:40 11,0 C 10,6 C 79 % 1031,2 hPa 0,0 l/m 2 min 0 min 1,1 UV-I 475 W/m 12,9 km/h (3 Bft)
11.03.2014 11:42 11,0 C 10,6 C 80 % 1031,3 hPa 0,0 l/m 2 min 0 min 1,1 UV-I 480 W/m 15,4 km/h (3 Bft)
11.03.2014 11:44 11,2 C 10,6 C 79 % 1031,2 hPa 0,0 l/m 2 min 0 min 1,1 UV-I 473 W/m 12,9 km/h (3 Bft)
11.03.2014 11:46 11,2 C 10,6 C 79 % 1031,1 hPa 0,0 l/m 2 min 0 min 1,1 UV-I 482 W/m 23,2 km/h (4 Bft)
11.03.2014 11:48 11,2 C 10,6 C 79 % 1031,2 hPa 0,0 l/m 2 min 0 min 1,1 UV-I 475 W/m 15,4 km/h (3 Bft)
11.03.2014 11:50 11,1 C 10,6 C 79 % 1031,1 hPa 0,0 l/m 2 min 0 min 1,0 UV-I 468 W/m 15,4 km/h (3 Bft)
11.03.2014 11:52 11,0 C 10,6 C 78 % 1031,1 hPa 0,0 l/m 2 min 0 min 1,0 UV-I 454 W/m 18,0 km/h (3 Bft)
11.03.2014 11:54 11,0 C 10,6 C 79 % 1031,1 hPa 0,0 l/m 2 min 0 min 0,9 UV-I 441 W/m 15,4 km/h (3 Bft)
11.03.2014 11:56 11,1 C 10,6 C 79 % 1031,2 hPa 0,0 l/m 2 min 0 min 0,9 UV-I 464 W/m 7,7 km/h (2 Bft)
11.03.2014 11:58 11,1 C 10,6 C 79 % 1031,1 hPa 0,0 l/m 2 min 0 min 0,9 UV-I 490 W/m 28,3 km/h (4 Bft)
11.03.2014 12:00 11,1 C 10,6 C 78 % 1031,1 hPa 0,0 l/m 2 min 0 min 0,9 UV-I 485 W/m 23,2 km/h (4 Bft)
11.03.2014 12:02 11,3 C 10,6 C 79 % 1031,1 hPa 0,0 l/m 2 min 0 min 0,9 UV-I 487 W/m 7,7 km/h (2 Bft)
11.03.2014 12:04 11,5 C 11,1 C 79 % 1031,1 hPa 0,0 l/m 2 min 0 min 0,9 UV-I 471 W/m 10,3 km/h (2 Bft)
11.03.2014 12:06 11,7 C 11,1 C 78 % 1031,1 hPa 0,0 l/m 2 min 0 min 0,9 UV-I 478 W/m 10,3 km/h (2 Bft)
11.03.2014 12:08 11,8 C 11,1 C 77 % 1031,1 hPa 0,0 l/m 2 min 0 min 0,9 UV-I 473 W/m 12,9 km/h (3 Bft)
11.03.2014 12:10 11,9 C 11,1 C 77 % 1031,1 hPa 0,0 l/m 2 min 0 min 0,9 UV-I 482 W/m 10,3 km/h (2 Bft)
11.03.2014 12:12 11,9 C 11,1 C 77 % 1031,1 hPa 0,0 l/m 2 min 0 min 0,9 UV-I 475 W/m 12,9 km/h (3 Bft)
11.03.2014 12:14 11,9 C 11,1 C 76 % 1031,1 hPa 0,0 l/m 2 min 0 min 0,9 UV-I 492 W/m 12,9 km/h (3 Bft)
11.03.2014 12:16 11,9 C 11,1 C 76 % 1031,1 hPa 0,0 l/m 2 min 0 min 0,9 UV-I 496 W/m 15,4 km/h (3 Bft)
11.03.2014 12:18 11,9 C 11,1 C 76 % 1031,1 hPa 0,0 l/m 2 min 0 min 0,9 UV-I 492 W/m 10,3 km/h (2 Bft)
11.03.2014 12:20 11,8 C 11,1 C 75 % 1031,1 hPa 0,0 l/m 2 min 0 min 0,9 UV-I 506 W/m 15,4 km/h (3 Bft)
11.03.2014 12:22 11,8 C 11,1 C 75 % 1031,1 hPa 0,0 l/m 2 min 0 min 0,9 UV-I 494 W/m 15,4 km/h (3 Bft)
11.03.2014 12:24 11,6 C 11,1 C 75 % 1031,0 hPa 0,0 l/m 2 min 0 min 0,9 UV-I 508 W/m 15,4 km/h (3 Bft)
11.03.2014 12:26 11,6 C 10,6 C 76 % 1031,0 hPa 0,0 l/m 2 min 0 min 0,9 UV-I 526 W/m 23,2 km/h (4 Bft)
11.03.2014 12:28 11,6 C 10,6 C 76 % 1031,1 hPa 0,0 l/m 2 min 0 min 0,9 UV-I 503 W/m 25,7 km/h (4 Bft)
11.03.2014 12:30 11,6 C 10,6 C 76 % 1031,0 hPa 0,0 l/m 2 min 0 min 0,9 UV-I 519 W/m 20,6 km/h (4 Bft)
11.03.2014 12:32 11,7 C 11,1 C 76 % 1031,0 hPa 0,0 l/m 2 min 0 min 0,9 UV-I 517 W/m 18,0 km/h (3 Bft)
11.03.2014 12:34 11,8 C 11,1 C 76 % 1031,0 hPa 0,0 l/m 2 min 0 min 0,9 UV-I 524 W/m 12,9 km/h (3 Bft)
11.03.2014 12:36 11,9 C 11,1 C 75 % 1031,0 hPa 0,0 l/m 2 min 0 min 0,9 UV-I 531 W/m 23,2 km/h (4 Bft)
11.03.2014 12:38 12,2 C 11,7 C 75 % 1031,0 hPa 0,0 l/m 2 min 0 min 0,9 UV-I 526 W/m 12,9 km/h (3 Bft)
11.03.2014 12:40 12,4 C 11,7 C 74 % 1031,1 hPa 0,0 l/m 2 min 0 min 1,0 UV-I 526 W/m 10,3 km/h (2 Bft)
11.03.2014 12:42 12,7 C 11,7 C 73 % 1031,1 hPa 0,0 l/m 2 min 0 min 1,0 UV-I 519 W/m 7,7 km/h (2 Bft)
11.03.2014 12:44 12,8 C 11,7 C 72 % 1030,9 hPa 0,0 l/m 2 min 0 min 1,1 UV-I 527 W/m 10,3 km/h (2 Bft)
11.03.2014 12:46 12,8 C 11,7 C 73 % 1031,0 hPa 0,0 l/m 2 min 0 min 1,2 UV-I 512 W/m 12,9 km/h (3 Bft)
11.03.2014 12:48 12,8 C 11,7 C 72 % 1031,0 hPa 0,0 l/m 2 min 0 min 1,2 UV-I 504 W/m 10,3 km/h (2 Bft)
11.03.2014 12:50 12,7 C 11,7 C 71 % 1031,0 hPa 0,0 l/m 2 min 0 min 1,3 UV-I 489 W/m 12,9 km/h (3 Bft)
11.03.2014 12:52 12,8 C 11,7 C 73 % 1030,8 hPa 0,0 l/m 2 min 0 min 1,3 UV-I 496 W/m 0,0 km/h (0 Bft)
11.03.2014 12:54 13,0 C 12,2 C 72 % 1030,8 hPa 0,0 l/m 2 min 0 min 1,3 UV-I 512 W/m 10,3 km/h (2 Bft)
11.03.2014 12:56 13,0 C 12,2 C 71 % 1030,8 hPa 0,0 l/m 2 min 0 min 1,3 UV-I 504 W/m 18,0 km/h (3 Bft)
11.03.2014 12:58 12,8 C 11,7 C 71 % 1030,8 hPa 0,0 l/m 2 min 0 min 1,3 UV-I 508 W/m 15,4 km/h (3 Bft)
11.03.2014 13:00 12,7 C 11,7 C 71 % 1030,8 hPa 0,0 l/m 2 min 0 min 1,3 UV-I 496 W/m 12,9 km/h (3 Bft)
11.03.2014 13:02 12,7 C 11,7 C 71 % 1030,8 hPa 0,0 l/m 2 min 0 min 1,3 UV-I 501 W/m 15,4 km/h (3 Bft)
11.03.2014 13:06 13,0 C 12,2 C 71 % 1030,7 hPa 0,0 l/m 2 min 0 min 1,3 UV-I 510 W/m 18,0 km/h (3 Bft)
11.03.2014 13:08 13,2 C 12,2 C 71 % 1030,7 hPa 0,0 l/m 2 min 0 min 1,3 UV-I 499 W/m 10,3 km/h (2 Bft)
11.03.2014 13:10 13,4 C 12,2 C 70 % 1030,6 hPa 0,0 l/m 2 min 0 min 1,3 UV-I 506 W/m 5,1 km/h (1 Bft)
11.03.2014 13:12 13,6 C 12,2 C 70 % 1030,5 hPa 0,0 l/m 2 min 0 min 1,3 UV-I 513 W/m 12,9 km/h (3 Bft)
11.03.2014 13:14 13,6 C 12,2 C 70 % 1030,5 hPa 0,0 l/m 2 min 0 min 1,3 UV-I 515 W/m 7,7 km/h (2 Bft)
11.03.2014 13:16 13,6 C 12,2 C 69 % 1030,6 hPa 0,0 l/m 2 min 0 min 1,3 UV-I 512 W/m 15,4 km/h (3 Bft)
11.03.2014 13:18 13,7 C 12,2 C 69 % 1030,5 hPa 0,0 l/m 2 min 0 min 1,4 UV-I 519 W/m 20,6 km/h (4 Bft)
11.03.2014 13:20 13,6 C 12,2 C 68 % 1030,5 hPa 0,0 l/m 2 min 0 min 1,3 UV-I 519 W/m 15,4 km/h (3 Bft)
11.03.2014 13:22 13,6 C 12,2 C 68 % 1030,5 hPa 0,0 l/m 2 min 0 min 1,3 UV-I 522 W/m 20,6 km/h (4 Bft)
11.03.2014 13:24 13,6 C 12,8 C 68 % 1030,4 hPa 0,0 l/m 2 min 0 min 1,3 UV-I 520 W/m 12,9 km/h (3 Bft)
11.03.2014 13:26 13,7 C 12,8 C 68 % 1030,5 hPa 0,0 l/m 2 min 0 min 1,3 UV-I 515 W/m 12,9 km/h (3 Bft)
11.03.2014 13:28 13,8 C 12,8 C 69 % 1030,5 hPa 0,0 l/m 2 min 0 min 1,3 UV-I 508 W/m 10,3 km/h (2 Bft)
11.03.2014 13:30 14,1 C 12,8 C 69 % 1030,5 hPa 0,0 l/m 2 min 0 min 1,3 UV-I 519 W/m 15,4 km/h (3 Bft)
11.03.2014 13:32 14,2 C 12,8 C 68 % 1030,4 hPa 0,0 l/m 2 min 0 min 1,3 UV-I 515 W/m 12,9 km/h (3 Bft)
11.03.2014 13:34 14,3 C 13,3 C 67 % 1030,5 hPa 0,0 l/m 2 min 0 min 1,3 UV-I 512 W/m 12,9 km/h (3 Bft)
11.03.2014 13:36 14,4 C 13,3 C 66 % 1030,4 hPa 0,0 l/m 2 min 0 min 1,3 UV-I 513 W/m 15,4 km/h (3 Bft)
11.03.2014 13:38 14,4 C 13,3 C 67 % 1030,3 hPa 0,0 l/m 2 min 0 min 1,3 UV-I 513 W/m 15,4 km/h (3 Bft)
11.03.2014 13:40 14,2 C 13,3 C 66 % 1030,4 hPa 0,0 l/m 2 min 0 min 1,3 UV-I 517 W/m 12,9 km/h (3 Bft)
11.03.2014 13:42 14,3 C 13,3 C 67 % 1030,3 hPa 0,0 l/m 2 min 0 min 1,3 UV-I 513 W/m 7,7 km/h (2 Bft)
11.03.2014 13:44 14,6 C 13,3 C 65 % 1030,3 hPa 0,0 l/m 2 min 0 min 1,3 UV-I 520 W/m 10,3 km/h (2 Bft)
11.03.2014 13:46 14,6 C 13,3 C 66 % 1030,2 hPa 0,0 l/m 2 min 0 min 1,3 UV-I 513 W/m 15,4 km/h (3 Bft)
11.03.2014 13:48 14,6 C 13,3 C 66 % 1030,2 hPa 0,0 l/m 2 min 0 min 1,3 UV-I 501 W/m 18,0 km/h (3 Bft)
11.03.2014 13:50 14,6 C 13,3 C 66 % 1030,2 hPa 0,0 l/m 2 min 0 min 1,3 UV-I 513 W/m 12,9 km/h (3 Bft)
11.03.2014 13:52 14,7 C 13,3 C 65 % 1030,2 hPa 0,0 l/m 2 min 0 min 1,2 UV-I 503 W/m 18,0 km/h (3 Bft)
11.03.2014 13:54 14,8 C 13,3 C 65 % 1030,2 hPa 0,0 l/m 2 min 0 min 1,2 UV-I 494 W/m 15,4 km/h (3 Bft)
11.03.2014 13:56 14,7 C 13,3 C 65 % 1030,2 hPa 0,0 l/m 2 min 0 min 1,2 UV-I 503 W/m 18,0 km/h (3 Bft)
11.03.2014 13:58 14,7 C 13,3 C 65 % 1030,2 hPa 0,0 l/m 2 min 0 min 1,2 UV-I 506 W/m 15,4 km/h (3 Bft)
11.03.2014 14:00 14,8 C 13,3 C 65 % 1030,2 hPa 0,0 l/m 2 min 0 min 1,2 UV-I 492 W/m 23,2 km/h (4 Bft)
11.03.2014 14:02 14,7 C 13,3 C 64 % 1030,1 hPa 0,0 l/m 2 min 0 min 1,2 UV-I 487 W/m 23,2 km/h (4 Bft)
11.03.2014 14:04 14,6 C 13,3 C 65 % 1030,2 hPa 0,0 l/m 2 min 0 min 1,2 UV-I 490 W/m 20,6 km/h (4 Bft)
11.03.2014 14:06 14,7 C 13,3 C 65 % 1030,0 hPa 0,0 l/m 2 min 0 min 1,2 UV-I 496 W/m 12,9 km/h (3 Bft)
11.03.2014 14:08 14,9 C 13,9 C 66 % 1030,0 hPa 0,0 l/m 2 min 0 min 1,1 UV-I 490 W/m 12,9 km/h (3 Bft)
11.03.2014 14:10 15,2 C 13,9 C 65 % 1030,0 hPa 0,0 l/m 2 min 0 min 1,1 UV-I 482 W/m 12,9 km/h (3 Bft)
11.03.2014 14:12 15,1 C 13,9 C 63 % 1030,0 hPa 0,0 l/m 2 min 0 min 1,1 UV-I 483 W/m 15,4 km/h (3 Bft)
11.03.2014 14:14 15,1 C 13,9 C 64 % 1030,0 hPa 0,0 l/m 2 min 0 min 1,1 UV-I 473 W/m 15,4 km/h (3 Bft)
11.03.2014 14:16 15,1 C 13,9 C 63 % 1030,0 hPa 0,0 l/m 2 min 0 min 1,0 UV-I 478 W/m 18,0 km/h (3 Bft)
11.03.2014 14:18 15,1 C 13,9 C 64 % 1029,9 hPa 0,0 l/m 2 min 0 min 1,1 UV-I 471 W/m 12,9 km/h (3 Bft)
11.03.2014 14:20 15,2 C 13,9 C 63 % 1029,9 hPa 0,0 l/m 2 min 0 min 1,0 UV-I 466 W/m 18,0 km/h (3 Bft)
11.03.2014 14:22 15,2 C 13,9 C 63 % 1029,8 hPa 0,0 l/m 2 min 0 min 1,0 UV-I 475 W/m 10,3 km/h (2 Bft)
11.03.2014 14:24 15,3 C 13,9 C 62 % 1029,9 hPa 0,0 l/m 2 min 0 min 1,0 UV-I 471 W/m 12,9 km/h (3 Bft)
11.03.2014 14:26 15,3 C 13,9 C 63 % 1029,8 hPa 0,0 l/m 2 min 0 min 1,0 UV-I 462 W/m 12,9 km/h (3 Bft)
11.03.2014 14:28 15,4 C 13,9 C 63 % 1029,8 hPa 0,0 l/m 2 min 0 min 1,0 UV-I 450 W/m 20,6 km/h (4 Bft)
11.03.2014 14:30 15,3 C 13,9 C 63 % 1029,8 hPa 0,0 l/m 2 min 0 min 0,9 UV-I 438 W/m 18,0 km/h (3 Bft)
11.03.2014 14:32 15,5 C 13,9 C 64 % 1029,8 hPa 0,0 l/m 2 min 0 min 1,0 UV-I 461 W/m 0,0 km/h (0 Bft)
11.03.2014 14:34 15,6 C 13,9 C 62 % 1029,7 hPa 0,0 l/m 2 min 0 min 0,9 UV-I 446 W/m 23,2 km/h (4 Bft)
11.03.2014 14:36 15,5 C 13,9 C 62 % 1029,8 hPa 0,0 l/m 2 min 0 min 0,9 UV-I 441 W/m 15,4 km/h (3 Bft)
11.03.2014 14:38 15,4 C 13,9 C 61 % 1029,6 hPa 0,0 l/m 2 min 0 min 0,9 UV-I 446 W/m 15,4 km/h (3 Bft)
11.03.2014 14:40 15,7 C 14,4 C 63 % 1029,6 hPa 0,0 l/m 2 min 0 min 0,9 UV-I 455 W/m 12,9 km/h (3 Bft)
11.03.2014 14:42 15,7 C 14,4 C 60 % 1029,6 hPa 0,0 l/m 2 min 0 min 0,9 UV-I 446 W/m 15,4 km/h (3 Bft)
11.03.2014 14:44 15,7 C 14,4 C 59 % 1029,6 hPa 0,0 l/m 2 min 0 min 0,8 UV-I 436 W/m 18,0 km/h (3 Bft)
11.03.2014 14:46 15,6 C 14,4 C 60 % 1029,6 hPa 0,0 l/m 2 min 0 min 0,8 UV-I 431 W/m 12,9 km/h (3 Bft)
11.03.2014 14:48 15,8 C 14,4 C 61 % 1029,6 hPa 0,0 l/m 2 min 0 min 0,8 UV-I 436 W/m 10,3 km/h (2 Bft)
11.03.2014 14:50 15,9 C 14,4 C 60 % 1029,6 hPa 0,0 l/m 2 min 0 min 0,8 UV-I 438 W/m 10,3 km/h (2 Bft)
11.03.2014 14:52 15,9 C 14,4 C 59 % 1029,6 hPa 0,0 l/m 2 min 0 min 0,8 UV-I 434 W/m 18,0 km/h (3 Bft)
11.03.2014 14:54 16,1 C 14,4 C 59 % 1029,6 hPa 0,0 l/m 2 min 0 min 0,8 UV-I 436 W/m 12,9 km/h (3 Bft)
11.03.2014 14:56 16,2 C 14,4 C 57 % 1029,6 hPa 0,0 l/m 2 min 0 min 0,8 UV-I 429 W/m 10,3 km/h (2 Bft)
11.03.2014 14:58 16,2 C 15,0 C 58 % 1029,6 hPa 0,0 l/m 2 min 0 min 0,7 UV-I 418 W/m 5,1 km/h (1 Bft)
11.03.2014 15:00 16,3 C 14,4 C 59 % 1029,6 hPa 0,0 l/m 2 min 0 min 0,7 UV-I 411 W/m 12,9 km/h (3 Bft)
11.03.2014 15:02 16,2 C 14,4 C 58 % 1029,6 hPa 0,0 l/m 2 min 0 min 0,7 UV-I 408 W/m 15,4 km/h (3 Bft)
11.03.2014 15:04 16,1 C 14,4 C 58 % 1029,6 hPa 0,0 l/m 2 min 0 min 0,7 UV-I 418 W/m 12,9 km/h (3 Bft)
11.03.2014 15:06 16,1 C 14,4 C 60 % 1029,6 hPa 0,0 l/m 2 min 0 min 0,6 UV-I 401 W/m 20,6 km/h (4 Bft)
11.03.2014 15:08 15,9 C 14,4 C 61 % 1029,6 hPa 0,0 l/m 2 min 0 min 0,6 UV-I 399 W/m 23,2 km/h (4 Bft)
11.03.2014 15:10 15,7 C 14,4 C 62 % 1029,6 hPa 0,0 l/m 2 min 0 min 0,6 UV-I 396 W/m 18,0 km/h (3 Bft)
11.03.2014 15:12 15,7 C 14,4 C 61 % 1029,6 hPa 0,0 l/m 2 min 0 min 0,6 UV-I 396 W/m 20,6 km/h (4 Bft)
11.03.2014 15:14 15,6 C 14,4 C 62 % 1029,6 hPa 0,0 l/m 2 min 0 min 0,6 UV-I 396 W/m 23,2 km/h (4 Bft)
11.03.2014 15:16 15,7 C 14,4 C 62 % 1029,6 hPa 0,0 l/m 2 min 0 min 0,5 UV-I 383 W/m 10,3 km/h (2 Bft)
11.03.2014 15:18 15,8 C 14,4 C 61 % 1029,6 hPa 0,0 l/m 2 min 0 min 0,5 UV-I 376 W/m 10,3 km/h (2 Bft)
11.03.2014 15:20 15,8 C 14,4 C 60 % 1029,6 hPa 0,0 l/m 2 min 0 min 0,5 UV-I 373 W/m 18,0 km/h (3 Bft)
11.03.2014 15:22 15,7 C 14,4 C 60 % 1029,6 hPa 0,0 l/m 2 min 0 min 0,5 UV-I 371 W/m 25,7 km/h (4 Bft)
11.03.2014 15:24 15,6 C 14,4 C 61 % 1029,6 hPa 0,0 l/m 2 min 0 min 0,5 UV-I 383 W/m 12,9 km/h (3 Bft)
11.03.2014 15:26 15,6 C 14,4 C 62 % 1029,6 hPa 0,0 l/m 2 min 0 min 0,5 UV-I 380 W/m 15,4 km/h (3 Bft)
11.03.2014 15:28 15,6 C 14,4 C 62 % 1029,5 hPa 0,0 l/m 2 min 0 min 0,0 UV-I 369 W/m 18,0 km/h (3 Bft)
11.03.2014 15:30 15,6 C 14,4 C 62 % 1029,5 hPa 0,0 l/m 2 min 0 min 0,0 UV-I 367 W/m 20,6 km/h (4 Bft)
11.03.2014 15:32 15,5 C 14,4 C 62 % 1029,6 hPa 0,0 l/m 2 min 0 min 0,0 UV-I 362 W/m 23,2 km/h (4 Bft)
11.03.2014 15:34 15,5 C 14,4 C 62 % 1029,5 hPa 0,0 l/m 2 min 0 min 0,0 UV-I 364 W/m 20,6 km/h (4 Bft)
11.03.2014 15:36 15,5 C 14,4 C 61 % 1029,5 hPa 0,0 l/m 2 min 0 min 0,0 UV-I 353 W/m 12,9 km/h (3 Bft)
11.03.2014 15:38 15,6 C 14,4 C 61 % 1029,5 hPa 0,0 l/m 2 min 0 min 0,0 UV-I 343 W/m 15,4 km/h (3 Bft)
11.03.2014 15:40 15,8 C 14,4 C 62 % 1029,5 hPa 0,0 l/m 2 min 0 min 0,0 UV-I 334 W/m 10,3 km/h (2 Bft)
11.03.2014 15:42 15,9 C 14,4 C 61 % 1029,5 hPa 0,0 l/m 2 min 0 min 0,0 UV-I 336 W/m 7,7 km/h (2 Bft)
11.03.2014 15:44 15,9 C 14,4 C 61 % 1029,5 hPa 0,0 l/m 2 min 0 min 0,0 UV-I 336 W/m 10,3 km/h (2 Bft)
11.03.2014 15:46 16,0 C 14,4 C 62 % 1029,5 hPa 0,0 l/m 2 min 0 min 0,0 UV-I 334 W/m 12,9 km/h (3 Bft)
11.03.2014 15:48 16,0 C 14,4 C 60 % 1029,4 hPa 0,0 l/m 2 min 0 min 0,0 UV-I 330 W/m 10,3 km/h (2 Bft)
11.03.2014 15:50 15,9 C 14,4 C 61 % 1029,5 hPa 0,0 l/m 2 min 0 min 0,0 UV-I 323 W/m 15,4 km/h (3 Bft)
11.03.2014 15:52 15,8 C 14,4 C 61 % 1029,5 hPa 0,0 l/m 2 min 0 min 0,0 UV-I 318 W/m 20,6 km/h (4 Bft)
11.03.2014 15:54 15,7 C 14,4 C 61 % 1029,5 hPa 0,0 l/m 2 min 0 min 0,0 UV-I 306 W/m 18,0 km/h (3 Bft)
11.03.2014 15:56 15,6 C 14,4 C 61 % 1029,5 hPa 0,0 l/m 2 min 0 min 0,0 UV-I 306 W/m 12,9 km/h (3 Bft)
11.03.2014 15:58 15,6 C 14,4 C 61 % 1029,6 hPa 0,0 l/m 2 min 0 min 0,0 UV-I 299 W/m 20,6 km/h (4 Bft)
11.03.2014 16:00 15,5 C 13,9 C 61 % 1029,6 hPa 0,0 l/m 2 min 0 min 0,0 UV-I 299 W/m 15,4 km/h (3 Bft)
11.03.2014 16:02 15,6 C 13,9 C 62 % 1029,6 hPa 0,0 l/m 2 min 0 min 0,0 UV-I 294 W/m 7,7 km/h (2 Bft)
11.03.2014 16:04 15,6 C 13,9 C 61 % 1029,6 hPa 0,0 l/m 2 min 0 min 0,0 UV-I 279 W/m 18,0 km/h (3 Bft)
11.03.2014 16:06 15,6 C 13,9 C 61 % 1029,5 hPa 0,0 l/m 2 min 0 min 0,0 UV-I 287 W/m 15,4 km/h (3 Bft)
11.03.2014 16:08 15,6 C 13,9 C 62 % 1029,5 hPa 0,0 l/m 2 min 0 min 0,0 UV-I 278 W/m 7,7 km/h (2 Bft)
11.03.2014 16:10 15,7 C 13,9 C 62 % 1029,6 hPa 0,0 l/m 2 min 0 min 0,0 UV-I 272 W/m 7,7 km/h (2 Bft)
11.03.2014 16:12 15,7 C 13,9 C 62 % 1029,6 hPa 0,0 l/m 2 min 0 min 0,0 UV-I 264 W/m 12,9 km/h (3 Bft)
11.03.2014 16:14 15,7 C 13,9 C 62 % 1029,6 hPa 0,0 l/m 2 min 0 min 0,0 UV-I 257 W/m 12,9 km/h (3 Bft)
11.03.2014 16:16 15,7 C 13,9 C 61 % 1029,6 hPa 0,0 l/m 2 min 0 min 0,0 UV-I 257 W/m 18,0 km/h (3 Bft)
11.03.2014 16:18 15,5 C 13,9 C 61 % 1029,6 hPa 0,0 l/m 2 min 0 min 0,0 UV-I 257 W/m 18,0 km/h (3 Bft)
11.03.2014 16:20 15,4 C 13,9 C 62 % 1029,6 hPa 0,0 l/m 2 min 0 min 0,0 UV-I 251 W/m 15,4 km/h (3 Bft)
11.03.2014 16:22 15,4 C 13,9 C 62 % 1029,6 hPa 0,0 l/m 2 min 0 min 0,0 UV-I 246 W/m 12,9 km/h (3 Bft)
11.03.2014 16:24 15,3 C 13,9 C 63 % 1029,6 hPa 0,0 l/m 2 min 0 min 0,0 UV-I 246 W/m 12,9 km/h (3 Bft)
11.03.2014 16:26 15,3 C 13,9 C 63 % 1029,5 hPa 0,0 l/m 2 min 0 min 0,0 UV-I 241 W/m 18,0 km/h (3 Bft)
11.03.2014 16:28 15,3 C 13,9 C 63 % 1029,6 hPa 0,0 l/m 2 min 0 min 0,0 UV-I 230 W/m 12,9 km/h (3 Bft)
11.03.2014 16:30 15,3 C 13,9 C 63 % 1029,6 hPa 0,0 l/m 2 min 0 min 0,0 UV-I 221 W/m 18,0 km/h (3 Bft)
11.03.2014 16:32 15,2 C 13,9 C 63 % 1029,5 hPa 0,0 l/m 2 min 0 min 0,0 UV-I 213 W/m 10,3 km/h (2 Bft)
11.03.2014 16:34 15,2 C 13,9 C 63 % 1029,5 hPa 0,0 l/m 2 min 0 min 0,0 UV-I 209 W/m 20,6 km/h (4 Bft)
11.03.2014 16:36 15,2 C 13,9 C 63 % 1029,6 hPa 0,0 l/m 2 min 0 min 0,0 UV-I 207 W/m 15,4 km/h (3 Bft)
11.03.2014 16:38 15,2 C 13,9 C 63 % 1029,6 hPa 0,0 l/m 2 min 0 min 0,0 UV-I 202 W/m 18,0 km/h (3 Bft)
11.03.2014 16:40 15,1 C 13,9 C 63 % 1029,5 hPa 0,0 l/m 2 min 0 min 0,0 UV-I 199 W/m 18,0 km/h (3 Bft)
11.03.2014 16:42 15,1 C 13,3 C 64 % 1029,6 hPa 0,0 l/m 2 min 0 min 0,0 UV-I 195 W/m 23,2 km/h (4 Bft)
11.03.2014 16:44 15,1 C 13,3 C 63 % 1029,6 hPa 0,0 l/m 2 min 0 min 0,0 UV-I 188 W/m 12,9 km/h (3 Bft)
11.03.2014 16:46 15,1 C 13,3 C 63 % 1029,6 hPa 0,0 l/m 2 min 0 min 0,0 UV-I 186 W/m 15,4 km/h (3 Bft)
11.03.2014 16:48 15,1 C 13,3 C 64 % 1029,6 hPa 0,0 l/m 2 min 0 min 0,0 UV-I 178 W/m 12,9 km/h (3 Bft)
11.03.2014 16:50 15,1 C 13,3 C 64 % 1029,6 hPa 0,0 l/m 2 min 0 min 0,0 UV-I 176 W/m 15,4 km/h (3 Bft)
11.03.2014 16:52 15,0 C 13,3 C 64 % 1029,6 hPa 0,0 l/m 2 min 0 min 0,0 UV-I 174 W/m 7,7 km/h (2 Bft)
11.03.2014 16:54 15,0 C 13,3 C 64 % 1029,7 hPa 0,0 l/m 2 min 0 min 0,0 UV-I 171 W/m 15,4 km/h (3 Bft)
11.03.2014 16:56 15,0 C 13,3 C 64 % 1029,7 hPa 0,0 l/m 2 min 0 min 0,0 UV-I 163 W/m 12,9 km/h (3 Bft)
11.03.2014 16:58 14,9 C 13,3 C 65 % 1029,7 hPa 0,0 l/m 2 min 0 min 0,0 UV-I 156 W/m 18,0 km/h (3 Bft)
11.03.2014 17:00 14,9 C 13,3 C 65 % 1029,7 hPa 0,0 l/m 2 min 0 min 0,0 UV-I 151 W/m 15,4 km/h (3 Bft)
11.03.2014 17:02 14,9 C 13,3 C 64 % 1029,7 hPa 0,0 l/m 2 min 0 min 0,0 UV-I 146 W/m 18,0 km/h (3 Bft)
11.03.2014 17:04 14,8 C 12,8 C 65 % 1029,7 hPa 0,0 l/m 2 min 0 min 0,0 UV-I 144 W/m 10,3 km/h (2 Bft)
11.03.2014 17:06 14,8 C 12,8 C 66 % 1029,7 hPa 0,0 l/m 2 min 0 min 0,0 UV-I 135 W/m 10,3 km/h (2 Bft)
11.03.2014 17:08 14,7 C 12,8 C 66 % 1029,6 hPa 0,0 l/m 2 min 0 min 0,0 UV-I 130 W/m 10,3 km/h (2 Bft)
11.03.2014 17:10 14,7 C 12,8 C 66 % 1029,7 hPa 0,0 l/m 2 min 0 min 0,0 UV-I 123 W/m 12,9 km/h (3 Bft)
11.03.2014 17:12 14,6 C 12,8 C 66 % 1029,6 hPa 0,0 l/m 2 min 0 min 0,0 UV-I 120 W/m 18,0 km/h (3 Bft)
11.03.2014 17:14 14,6 C 12,8 C 65 % 1029,6 hPa 0,0 l/m 2 min 0 min 0,0 UV-I 118 W/m 10,3 km/h (2 Bft)
11.03.2014 17:16 14,6 C 12,8 C 66 % 1029,7 hPa 0,0 l/m 2 min 0 min 0,0 UV-I 111 W/m 10,3 km/h (2 Bft)
11.03.2014 17:18 14,6 C 12,8 C 66 % 1029,7 hPa 0,0 l/m 2 min 0 min 0,0 UV-I 105 W/m 10,3 km/h (2 Bft)
11.03.2014 17:20 14,5 C 12,8 C 66 % 1029,7 hPa 0,0 l/m 2 min 0 min 0,0 UV-I 102 W/m 12,9 km/h (3 Bft)
11.03.2014 17:22 14,5 C 12,8 C 66 % 1029,7 hPa 0,0 l/m 2 min 0 min 0,0 UV-I 98 W/m 15,4 km/h (3 Bft)
11.03.2014 17:24 14,4 C 12,8 C 66 % 1029,7 hPa 0,0 l/m 2 min 0 min 0,0 UV-I 93 W/m 12,9 km/h (3 Bft)
11.03.2014 17:26 14,4 C 12,8 C 66 % 1029,7 hPa 0,0 l/m 2 min 0 min 0,0 UV-I 90 W/m 15,4 km/h (3 Bft)
11.03.2014 17:28 14,3 C 12,8 C 67 % 1029,7 hPa 0,0 l/m 0 min 0 min 0,0 UV-I 86 W/m 12,9 km/h (3 Bft)
11.03.2014 17:30 14,3 C 12,8 C 67 % 1029,7 hPa 0,0 l/m 0 min 0 min 0,0 UV-I 83 W/m 12,9 km/h (3 Bft)
11.03.2014 17:32 14,2 C 12,8 C 67 % 1029,7 hPa 0,0 l/m 0 min 0 min 0,0 UV-I 72 W/m 12,9 km/h (3 Bft)
11.03.2014 17:34 14,2 C 12,8 C 67 % 1029,7 hPa 0,0 l/m 0 min 0 min 0,0 UV-I 72 W/m 12,9 km/h (3 Bft)
11.03.2014 17:36 14,2 C 12,2 C 67 % 1029,7 hPa 0,0 l/m 0 min 0 min 0,0 UV-I 69 W/m 0,0 km/h (0 Bft)
11.03.2014 17:38 14,2 C 12,2 C 67 % 1029,7 hPa 0,0 l/m 0 min 0 min 0,0 UV-I 65 W/m 7,7 km/h (2 Bft)
11.03.2014 17:40 14,2 C 12,2 C 68 % 1029,8 hPa 0,0 l/m 0 min 0 min 0,0 UV-I 62 W/m 2,6 km/h (1 Bft)
11.03.2014 17:42 14,2 C 12,2 C 67 % 1029,8 hPa 0,0 l/m 0 min 0 min 0,0 UV-I 56 W/m 18,0 km/h (3 Bft)
11.03.2014 17:44 14,1 C 12,2 C 67 % 1029,8 hPa 0,0 l/m 0 min 0 min 0,0 UV-I 54 W/m 10,3 km/h (2 Bft)
11.03.2014 17:46 14,1 C 12,2 C 67 % 1029,8 hPa 0,0 l/m 0 min 0 min 0,0 UV-I 51 W/m 5,1 km/h (1 Bft)
11.03.2014 17:48 14,0 C 12,2 C 67 % 1029,8 hPa 0,0 l/m 0 min 0 min 0,0 UV-I 46 W/m 10,3 km/h (2 Bft)
11.03.2014 17:50 13,9 C 12,2 C 67 % 1029,8 hPa 0,0 l/m 0 min 0 min 0,0 UV-I 44 W/m 7,7 km/h (2 Bft)
11.03.2014 17:52 13,9 C 11,7 C 67 % 1029,9 hPa 0,0 l/m 0 min 0 min 0,0 UV-I 40 W/m 12,9 km/h (3 Bft)
11.03.2014 17:54 13,9 C 11,7 C 67 % 1029,9 hPa 0,0 l/m 0 min 0 min 0,0 UV-I 33 W/m 12,9 km/h (3 Bft)
11.03.2014 17:56 13,9 C 12,2 C 67 % 1029,9 hPa 0,0 l/m 0 min 0 min 0,0 UV-I 32 W/m 15,4 km/h (3 Bft)
11.03.2014 17:58 13,9 C 12,2 C 67 % 1029,9 hPa 0,0 l/m 0 min 0 min 0,0 UV-I 30 W/m 15,4 km/h (3 Bft)
11.03.2014 18:00 13,8 C 11,7 C 67 % 1029,9 hPa 0,0 l/m 0 min 0 min 0,0 UV-I 26 W/m 2,6 km/h (1 Bft)
11.03.2014 18:02 13,7 C 11,7 C 68 % 1030,0 hPa 0,0 l/m 0 min 0 min 0,0 UV-I 25 W/m 12,9 km/h (3 Bft)
11.03.2014 18:04 13,6 C 11,7 C 69 % 1030,0 hPa 0,0 l/m 0 min 0 min 0,0 UV-I 25 W/m 10,3 km/h (2 Bft)
11.03.2014 18:06 13,5 C 11,7 C 69 % 1029,9 hPa 0,0 l/m 0 min 0 min 0,0 UV-I 21 W/m 2,6 km/h (1 Bft)
11.03.2014 18:08 13,4 C 11,1 C 70 % 1030,0 hPa 0,0 l/m 0 min 0 min 0,0 UV-I 19 W/m 0,0 km/h (0 Bft)
11.03.2014 18:10 13,3 C 11,1 C 70 % 1030,1 hPa 0,0 l/m 0 min 0 min 0,0 UV-I 19 W/m 2,6 km/h (1 Bft)
11.03.2014 18:12 13,2 C 11,1 C 70 % 1030,1 hPa 0,0 l/m 0 min 0 min 0,0 UV-I 16 W/m 2,6 km/h (1 Bft)
11.03.2014 18:14 13,2 C 11,1 C 70 % 1030,1 hPa 0,0 l/m 0 min 0 min 0,0 UV-I 16 W/m 7,7 km/h (2 Bft)
11.03.2014 18:16 13,2 C 11,1 C 70 % 1030,2 hPa 0,0 l/m 0 min 0 min 0,0 UV-I 14 W/m 2,6 km/h (1 Bft)
11.03.2014 18:18 13,1 C 11,1 C 70 % 1030,2 hPa 0,0 l/m 0 min 0 min 0,0 UV-I 12 W/m 7,7 km/h (2 Bft)
11.03.2014 18:20 13,1 C 11,1 C 70 % 1030,2 hPa 0,0 l/m 0 min 0 min 0,0 UV-I 12 W/m 7,7 km/h (2 Bft)
11.03.2014 18:22 13,0 C 10,6 C 70 % 1030,2 hPa 0,0 l/m 0 min 0 min 0,0 UV-I 11 W/m 0,0 km/h (0 Bft)
11.03.2014 18:24 12,9 C 10,6 C 71 % 1030,2 hPa 0,0 l/m 0 min 0 min 0,0 UV-I 9 W/m 0,0 km/h (0 Bft)
11.03.2014 18:26 12,9 C 10,6 C 71 % 1030,2 hPa 0,0 l/m 0 min 0 min 0,0 UV-I 9 W/m 2,6 km/h (1 Bft)
11.03.2014 18:28 12,8 C 10,6 C 71 % 1030,2 hPa 0,0 l/m 0 min 0 min 0,0 UV-I 7 W/m 2,6 km/h (1 Bft)
11.03.2014 18:30 12,8 C 10,6 C 71 % 1030,3 hPa 0,0 l/m 0 min 0 min 0,0 UV-I 7 W/m 7,7 km/h (2 Bft)
11.03.2014 18:32 12,7 C 10,6 C 72 % 1030,3 hPa 0,0 l/m 0 min 0 min 0,0 UV-I 5 W/m 2,6 km/h (1 Bft)
11.03.2014 18:34 12,6 C 10,0 C 72 % 1030,4 hPa 0,0 l/m 0 min 0 min 0,0 UV-I 5 W/m 0,0 km/h (0 Bft)
11.03.2014 18:36 12,5 C 10,0 C 73 % 1030,3 hPa 0,0 l/m 0 min 0 min 0,0 UV-I 5 W/m 0,0 km/h (0 Bft)
11.03.2014 18:38 12,4 C 10,0 C 73 % 1030,4 hPa 0,0 l/m 0 min 0 min 0,0 UV-I 0 W/m 0,0 km/h (0 Bft)
11.03.2014 18:40 12,3 C 10,0 C 73 % 1030,4 hPa 0,0 l/m 0 min 0 min 0,0 UV-I 0 W/m 0,0 km/h (0 Bft)
11.03.2014 18:42 12,2 C 10,0 C 73 % 1030,4 hPa 0,0 l/m 0 min 0 min 0,0 UV-I 0 W/m 0,0 km/h (0 Bft)
11.03.2014 18:44 12,1 C 9,4 C 74 % 1030,4 hPa 0,0 l/m 0 min 0 min 0,0 UV-I 0 W/m 2,6 km/h (1 Bft)
11.03.2014 18:46 12,0 C 9,4 C 74 % 1030,5 hPa 0,0 l/m 0 min 0 min 0,0 UV-I 0 W/m 5,1 km/h (1 Bft)
11.03.2014 18:48 12,1 C 10,0 C 73 % 1030,5 hPa 0,0 l/m 0 min 0 min 0,0 UV-I 0 W/m 5,1 km/h (1 Bft)
11.03.2014 18:50 12,1 C 10,0 C 73 % 1030,5 hPa 0,0 l/m 0 min 0 min 0,0 UV-I 0 W/m 2,6 km/h (1 Bft)
11.03.2014 18:52 12,1 C 9,4 C 73 % 1030,5 hPa 0,0 l/m 0 min 0 min 0,0 UV-I 0 W/m 0,0 km/h (0 Bft)
11.03.2014 18:54 12,1 C 10,0 C 73 % 1030,5 hPa 0,0 l/m 0 min 0 min 0,0 UV-I 0 W/m 10,3 km/h (2 Bft)
11.03.2014 18:56 12,2 C 10,0 C 72 % 1030,5 hPa 0,0 l/m 0 min 0 min 0,0 UV-I 0 W/m 7,7 km/h (2 Bft)
11.03.2014 18:58 12,2 C 10,0 C 72 % 1030,5 hPa 0,0 l/m 0 min 0 min 0,0 UV-I 0 W/m 7,7 km/h (2 Bft)
11.03.2014 19:00 12,2 C 10,0 C 72 % 1030,5 hPa 0,0 l/m 0 min 0 min 0,0 UV-I 0 W/m 2,6 km/h (1 Bft)
11.03.2014 19:02 12,2 C 10,0 C 72 % 1030,5 hPa 0,0 l/m 0 min 0 min 0,0 UV-I 0 W/m 7,7 km/h (2 Bft)
11.03.2014 19:04 12,2 C 10,0 C 72 % 1030,6 hPa 0,0 l/m 0 min 0 min 0,0 UV-I 0 W/m 2,6 km/h (1 Bft)
11.03.2014 19:06 12,1 C 9,4 C 72 % 1030,7 hPa 0,0 l/m 0 min 0 min 0,0 UV-I 0 W/m 0,0 km/h (0 Bft)
11.03.2014 19:08 12,0 C 9,4 C 73 % 1030,6 hPa 0,0 l/m 0 min 0 min 0,0 UV-I 0 W/m 0,0 km/h (0 Bft)
11.03.2014 19:10 11,9 C 9,4 C 73 % 1030,6 hPa 0,0 l/m 0 min 0 min 0,0 UV-I 0 W/m 0,0 km/h (0 Bft)
11.03.2014 19:12 11,8 C 9,4 C 73 % 1030,6 hPa 0,0 l/m 0 min 0 min 0,0 UV-I 0 W/m 2,6 km/h (1 Bft)
11.03.2014 19:14 11,8 C 9,4 C 73 % 1030,6 hPa 0,0 l/m 0 min 0 min 0,0 UV-I 0 W/m 0,0 km/h (0 Bft)
11.03.2014 19:16 11,7 C 9,4 C 74 % 1030,7 hPa 0,0 l/m 0 min 0 min 0,0 UV-I 0 W/m 0,0 km/h (0 Bft)
11.03.2014 19:18 11,7 C 9,4 C 74 % 1030,7 hPa 0,0 l/m 0 min 0 min 0,0 UV-I 0 W/m 0,0 km/h (0 Bft)
11.03.2014 19:20 11,6 C 9,4 C 74 % 1030,8 hPa 0,0 l/m 0 min 0 min 0,0 UV-I 0 W/m 2,6 km/h (1 Bft)
11.03.2014 19:22 11,6 C 9,4 C 74 % 1030,8 hPa 0,0 l/m 0 min 0 min 0,0 UV-I 0 W/m 2,6 km/h (1 Bft)
11.03.2014 19:24 11,6 C 9,4 C 74 % 1030,8 hPa 0,0 l/m 0 min 0 min 0,0 UV-I 0 W/m 0,0 km/h (0 Bft)
11.03.2014 19:26 11,5 C 8,9 C 74 % 1030,8 hPa 0,0 l/m 0 min 0 min 0,0 UV-I 0 W/m 0,0 km/h (0 Bft)
11.03.2014 19:28 11,5 C 8,9 C 75 % 1030,8 hPa 0,0 l/m 0 min 0 min 0,0 UV-I 0 W/m 0,0 km/h (0 Bft)
11.03.2014 19:30 11,5 C 8,9 C 75 % 1030,8 hPa 0,0 l/m 0 min 0 min 0,0 UV-I 0 W/m 5,1 km/h (1 Bft)
11.03.2014 19:32 11,4 C 8,9 C 75 % 1030,9 hPa 0,0 l/m 0 min 0 min 0,0 UV-I 0 W/m 2,6 km/h (1 Bft)
11.03.2014 19:34 11,4 C 8,9 C 75 % 1030,9 hPa 0,0 l/m 0 min 0 min 0,0 UV-I 0 W/m 0,0 km/h (0 Bft)
11.03.2014 19:36 11,3 C 8,9 C 75 % 1030,9 hPa 0,0 l/m 0 min 0 min 0,0 UV-I 0 W/m 10,3 km/h (2 Bft)
11.03.2014 19:38 11,2 C 8,9 C 75 % 1030,9 hPa 0,0 l/m 0 min 0 min 0,0 UV-I 0 W/m 7,7 km/h (2 Bft)
11.03.2014 19:40 11,2 C 8,9 C 75 % 1031,0 hPa 0,0 l/m 0 min 0 min 0,0 UV-I 0 W/m 0,0 km/h (0 Bft)
11.03.2014 19:42 11,2 C 8,9 C 76 % 1031,0 hPa 0,0 l/m 0 min 0 min 0,0 UV-I 0 W/m 10,3 km/h (2 Bft)
11.03.2014 19:44 11,2 C 8,9 C 75 % 1031,0 hPa 0,0 l/m 0 min 0 min 0,0 UV-I 0 W/m 0,0 km/h (0 Bft)
11.03.2014 19:46 11,2 C 8,9 C 75 % 1031,0 hPa 0,0 l/m 0 min 0 min 0,0 UV-I 0 W/m 2,6 km/h (1 Bft)
11.03.2014 19:48 11,2 C 8,9 C 76 % 1031,0 hPa 0,0 l/m 0 min 0 min 0,0 UV-I 0 W/m 2,6 km/h (1 Bft)
11.03.2014 19:50 11,1 C 8,9 C 76 % 1031,0 hPa 0,0 l/m 0 min 0 min 0,0 UV-I 0 W/m 0,0 km/h (0 Bft)
11.03.2014 19:52 11,0 C 8,9 C 76 % 1031,1 hPa 0,0 l/m 0 min 0 min 0,0 UV-I 0 W/m 0,0 km/h (0 Bft)
11.03.2014 19:54 11,0 C 8,9 C 76 % 1031,1 hPa 0,0 l/m 0 min 0 min 0,0 UV-I 0 W/m 2,6 km/h (1 Bft)
11.03.2014 19:56 10,9 C 8,9 C 76 % 1031,1 hPa 0,0 l/m 0 min 0 min 0,0 UV-I 0 W/m 0,0 km/h (0 Bft)
11.03.2014 19:58 10,9 C 8,3 C 76 % 1031,1 hPa 0,0 l/m 0 min 0 min 0,0 UV-I 0 W/m 7,7 km/h (2 Bft)
11.03.2014 20:00 10,8 C 8,3 C 77 % 1031,1 hPa 0,0 l/m 0 min 0 min 0,0 UV-I 0 W/m 0,0 km/h (0 Bft)
11.03.2014 20:02 10,7 C 8,3 C 77 % 1031,1 hPa 0,0 l/m 0 min 0 min 0,0 UV-I 0 W/m 2,6 km/h (1 Bft)
11.03.2014 20:04 10,7 C 8,3 C 77 % 1031,1 hPa 0,0 l/m 0 min 0 min 0,0 UV-I 0 W/m 7,7 km/h (2 Bft)
11.03.2014 20:06 10,7 C 8,3 C 77 % 1031,2 hPa 0,0 l/m 0 min 0 min 0,0 UV-I 0 W/m 5,1 km/h (1 Bft)
11.03.2014 20:08 10,7 C 8,3 C 77 % 1031,1 hPa 0,0 l/m 0 min 0 min 0,0 UV-I 0 W/m 0,0 km/h (0 Bft)
11.03.2014 20:10 10,6 C 8,3 C 77 % 1031,1 hPa 0,0 l/m 0 min 0 min 0,0 UV-I 0 W/m 0,0 km/h (0 Bft)
11.03.2014 20:12 10,6 C 8,3 C 78 % 1031,1 hPa 0,0 l/m 0 min 0 min 0,0 UV-I 0 W/m 2,6 km/h (1 Bft)
11.03.2014 20:14 10,4 C 8,3 C 78 % 1031,1 hPa 0,0 l/m 0 min 0 min 0,0 UV-I 0 W/m 2,6 km/h (1 Bft)
11.03.2014 20:16 10,4 C 8,3 C 78 % 1031,2 hPa 0,0 l/m 0 min 0 min 0,0 UV-I 0 W/m 5,1 km/h (1 Bft)
11.03.2014 20:18 10,4 C 8,3 C 79 % 1031,3 hPa 0,0 l/m 0 min 0 min 0,0 UV-I 0 W/m 7,7 km/h (2 Bft)
11.03.2014 20:20 10,4 C 8,3 C 79 % 1031,3 hPa 0,0 l/m 0 min 0 min 0,0 UV-I 0 W/m 5,1 km/h (1 Bft)
11.03.2014 20:22 10,4 C 8,3 C 79 % 1031,3 hPa 0,0 l/m 0 min 0 min 0,0 UV-I 0 W/m 10,3 km/h (2 Bft)
11.03.2014 20:24 10,4 C 8,3 C 79 % 1031,4 hPa 0,0 l/m 0 min 0 min 0,0 UV-I 0 W/m 5,1 km/h (1 Bft)
11.03.2014 20:26 10,4 C 8,3 C 79 % 1031,4 hPa 0,0 l/m 0 min 0 min 0,0 UV-I 0 W/m 0,0 km/h (0 Bft)
11.03.2014 20:28 10,3 C 8,3 C 79 % 1031,4 hPa 0,0 l/m 0 min 0 min 0,0 UV-I 0 W/m 0,0 km/h (0 Bft)
11.03.2014 20:30 10,3 C 8,3 C 80 % 1031,4 hPa 0,0 l/m 0 min 0 min 0,0 UV-I 0 W/m 2,6 km/h (1 Bft)
11.03.2014 20:32 10,2 C 7,8 C 79 % 1031,4 hPa 0,0 l/m 0 min 0 min 0,0 UV-I 0 W/m 0,0 km/h (0 Bft)
11.03.2014 20:34 10,1 C 7,8 C 80 % 1031,4 hPa 0,0 l/m 0 min 0 min 0,0 UV-I 0 W/m 0,0 km/h (0 Bft)
11.03.2014 20:36 10,0 C 7,8 C 80 % 1031,5 hPa 0,0 l/m 0 min 0 min 0,0 UV-I 0 W/m 0,0 km/h (0 Bft)
11.03.2014 20:38 9,8 C 7,8 C 80 % 1031,5 hPa 0,0 l/m 0 min 0 min 0,0 UV-I 0 W/m 2,6 km/h (1 Bft)
11.03.2014 20:40 9,8 C 7,8 C 81 % 1031,5 hPa 0,0 l/m 0 min 0 min 0,0 UV-I 0 W/m 0,0 km/h (0 Bft)
11.03.2014 20:42 9,8 C 7,8 C 81 % 1031,5 hPa 0,0 l/m 0 min 0 min 0,0 UV-I 0 W/m 10,3 km/h (2 Bft)
11.03.2014 20:44 9,8 C 7,8 C 81 % 1031,6 hPa 0,0 l/m 0 min 0 min 0,0 UV-I 0 W/m 5,1 km/h (1 Bft)
11.03.2014 20:46 9,8 C 7,8 C 81 % 1031,6 hPa 0,0 l/m 0 min 0 min 0,0 UV-I 0 W/m 2,6 km/h (1 Bft)
11.03.2014 20:48 9,7 C 7,8 C 81 % 1031,6 hPa 0,0 l/m 0 min 0 min 0,0 UV-I 0 W/m 7,7 km/h (2 Bft)
11.03.2014 20:50 9,7 C 7,8 C 82 % 1031,6 hPa 0,0 l/m 0 min 0 min 0,0 UV-I 0 W/m 7,7 km/h (2 Bft)
11.03.2014 20:52 9,7 C 7,8 C 82 % 1031,6 hPa 0,0 l/m 0 min 0 min 0,0 UV-I 0 W/m 5,1 km/h (1 Bft)
11.03.2014 20:54 9,6 C 7,8 C 82 % 1031,7 hPa 0,0 l/m 0 min 0 min 0,0 UV-I 0 W/m 7,7 km/h (2 Bft)
11.03.2014 20:56 9,6 C 7,8 C 82 % 1031,7 hPa 0,0 l/m 0 min 0 min 0,0 UV-I 0 W/m 5,1 km/h (1 Bft)
11.03.2014 20:58 9,6 C 7,8 C 82 % 1031,7 hPa 0,0 l/m 0 min 0 min 0,0 UV-I 0 W/m 7,7 km/h (2 Bft)
11.03.2014 21:00 9,6 C 7,8 C 82 % 1031,6 hPa 0,0 l/m 0 min 0 min 0,0 UV-I 0 W/m 7,7 km/h (2 Bft)
11.03.2014 21:02 9,5 C 7,8 C 82 % 1031,7 hPa 0,0 l/m 0 min 0 min 0,0 UV-I 0 W/m 7,7 km/h (2 Bft)
11.03.2014 21:04 9,5 C 7,8 C 82 % 1031,6 hPa 0,0 l/m 0 min 0 min 0,0 UV-I 0 W/m 5,1 km/h (1 Bft)
11.03.2014 21:06 9,5 C 7,8 C 82 % 1031,7 hPa 0,0 l/m 0 min 0 min 0,0 UV-I 0 W/m 7,7 km/h (2 Bft)
11.03.2014 21:08 9,4 C 7,8 C 82 % 1031,7 hPa 0,0 l/m 0 min 0 min 0,0 UV-I 0 W/m 10,3 km/h (2 Bft)
11.03.2014 21:10 9,4 C 7,2 C 82 % 1031,7 hPa 0,0 l/m 0 min 0 min 0,0 UV-I 0 W/m 0,0 km/h (0 Bft)
11.03.2014 21:12 9,3 C 7,2 C 83 % 1031,7 hPa 0,0 l/m 0 min 0 min 0,0 UV-I 0 W/m 0,0 km/h (0 Bft)
11.03.2014 21:14 9,2 C 7,2 C 83 % 1031,7 hPa 0,0 l/m 0 min 0 min 0,0 UV-I 0 W/m 0,0 km/h (0 Bft)
11.03.2014 21:16 9,2 C 7,2 C 83 % 1031,8 hPa 0,0 l/m 0 min 0 min 0,0 UV-I 0 W/m 0,0 km/h (0 Bft)
11.03.2014 21:18 9,1 C 7,2 C 84 % 1031,8 hPa 0,0 l/m 0 min 0 min 0,0 UV-I 0 W/m 0,0 km/h (0 Bft)
11.03.2014 21:20 9,0 C 7,2 C 84 % 1031,8 hPa 0,0 l/m 0 min 0 min 0,0 UV-I 0 W/m 2,6 km/h (1 Bft)
11.03.2014 21:22 9,1 C 7,2 C 84 % 1031,8 hPa 0,0 l/m 0 min 0 min 0,0 UV-I 0 W/m 0,0 km/h (0 Bft)
11.03.2014 21:24 9,0 C 7,2 C 84 % 1031,9 hPa 0,0 l/m 0 min 0 min 0,0 UV-I 0 W/m 0,0 km/h (0 Bft)
11.03.2014 21:26 8,9 C 7,2 C 84 % 1031,8 hPa 0,0 l/m 0 min 0 min 0,0 UV-I 0 W/m 0,0 km/h (0 Bft)
11.03.2014 21:28 8,9 C 7,2 C 84 % 1031,9 hPa 0,0 l/m 0 min 0 min 0,0 UV-I 0 W/m 0,0 km/h (0 Bft)
11.03.2014 21:30 8,8 C 7,2 C 84 % 1031,9 hPa 0,0 l/m 0 min 0 min 0,0 UV-I 0 W/m 0,0 km/h (0 Bft)
11.03.2014 21:32 8,8 C 7,2 C 85 % 1031,9 hPa 0,0 l/m 0 min 0 min 0,0 UV-I 0 W/m 0,0 km/h (0 Bft)
11.03.2014 21:34 8,8 C 7,2 C 85 % 1031,9 hPa 0,0 l/m 0 min 0 min 0,0 UV-I 0 W/m 0,0 km/h (0 Bft)
11.03.2014 21:36 8,8 C 7,2 C 85 % 1031,9 hPa 0,0 l/m 0 min 0 min 0,0 UV-I 0 W/m 2,6 km/h (1 Bft)
11.03.2014 21:38 8,7 C 6,7 C 85 % 1032,0 hPa 0,0 l/m 0 min 0 min 0,0 UV-I 0 W/m 0,0 km/h (0 Bft)
11.03.2014 21:40 8,7 C 6,7 C 85 % 1032,0 hPa 0,0 l/m 0 min 0 min 0,0 UV-I 0 W/m 0,0 km/h (0 Bft)
11.03.2014 21:42 8,6 C 6,7 C 85 % 1032,1 hPa 0,0 l/m 0 min 0 min 0,0 UV-I 0 W/m 0,0 km/h (0 Bft)
11.03.2014 21:44 8,6 C 6,7 C 86 % 1032,0 hPa 0,0 l/m 0 min 0 min 0,0 UV-I 0 W/m 5,1 km/h (1 Bft)
11.03.2014 21:46 8,6 C 6,7 C 86 % 1032,0 hPa 0,0 l/m 0 min 0 min 0,0 UV-I 0 W/m 0,0 km/h (0 Bft)
11.03.2014 21:48 8,5 C 6,7 C 86 % 1032,0 hPa 0,0 l/m 0 min 0 min 0,0 UV-I 0 W/m 0,0 km/h (0 Bft)
11.03.2014 21:50 8,4 C 6,7 C 86 % 1032,0 hPa 0,0 l/m 0 min 0 min 0,0 UV-I 0 W/m 0,0 km/h (0 Bft)
11.03.2014 21:52 8,4 C 6,7 C 86 % 1032,0 hPa 0,0 l/m 0 min 0 min 0,0 UV-I 0 W/m 10,3 km/h (2 Bft)
11.03.2014 21:54 8,4 C 6,7 C 86 % 1032,0 hPa 0,0 l/m 0 min 0 min 0,0 UV-I 0 W/m 5,1 km/h (1 Bft)
11.03.2014 21:56 8,3 C 6,7 C 87 % 1031,9 hPa 0,0 l/m 0 min 0 min 0,0 UV-I 0 W/m 5,1 km/h (1 Bft)
11.03.2014 21:58 8,3 C 6,7 C 87 % 1032,0 hPa 0,0 l/m 0 min 0 min 0,0 UV-I 0 W/m 0,0 km/h (0 Bft)
11.03.2014 22:00 8,3 C 6,7 C 87 % 1031,9 hPa 0,0 l/m 0 min 0 min 0,0 UV-I 0 W/m 5,1 km/h (1 Bft)
11.03.2014 22:02 8,3 C 6,7 C 87 % 1031,9 hPa 0,0 l/m 0 min 0 min 0,0 UV-I 0 W/m 5,1 km/h (1 Bft)
11.03.2014 22:06 8,3 C 6,1 C 87 % 1031,9 hPa 0,0 l/m 0 min 0 min 0,0 UV-I 0 W/m 2,6 km/h (1 Bft)
11.03.2014 22:08 8,2 C 6,1 C 87 % 1032,0 hPa 0,0 l/m 0 min 0 min 0,0 UV-I 0 W/m 7,7 km/h (2 Bft)
11.03.2014 22:10 8,2 C 6,7 C 87 % 1031,9 hPa 0,0 l/m 0 min 0 min 0,0 UV-I 0 W/m 5,1 km/h (1 Bft)
11.03.2014 22:12 8,2 C 6,1 C 87 % 1032,0 hPa 0,0 l/m 0 min 0 min 0,0 UV-I 0 W/m 0,0 km/h (0 Bft)
11.03.2014 22:14 8,1 C 6,1 C 87 % 1032,0 hPa 0,0 l/m 0 min 0 min 0,0 UV-I 0 W/m 2,6 km/h (1 Bft)
11.03.2014 22:16 8,1 C 6,1 C 87 % 1031,9 hPa 0,0 l/m 0 min 0 min 0,0 UV-I 0 W/m 0,0 km/h (0 Bft)
11.03.2014 22:18 8,1 C 6,1 C 87 % 1031,9 hPa 0,0 l/m 0 min 0 min 0,0 UV-I 0 W/m 0,0 km/h (0 Bft)
11.03.2014 22:20 8,0 C 6,1 C 87 % 1031,9 hPa 0,0 l/m 0 min 0 min 0,0 UV-I 0 W/m 5,1 km/h (1 Bft)
11.03.2014 22:22 8,0 C 6,1 C 88 % 1031,9 hPa 0,0 l/m 0 min 0 min 0,0 UV-I 0 W/m 5,1 km/h (1 Bft)
11.03.2014 22:24 7,9 C 6,1 C 88 % 1031,9 hPa 0,0 l/m 0 min 0 min 0,0 UV-I 0 W/m 0,0 km/h (0 Bft)
11.03.2014 22:26 7,9 C 6,1 C 88 % 1031,9 hPa 0,0 l/m 0 min 0 min 0,0 UV-I 0 W/m 0,0 km/h (0 Bft)
11.03.2014 22:28 7,9 C 6,1 C 88 % 1031,9 hPa 0,0 l/m 0 min 0 min 0,0 UV-I 0 W/m 0,0 km/h (0 Bft)
11.03.2014 22:30 7,9 C 6,1 C 88 % 1031,9 hPa 0,0 l/m 0 min 0 min 0,0 UV-I 0 W/m 2,6 km/h (1 Bft)
11.03.2014 22:32 7,8 C 6,1 C 88 % 1031,9 hPa 0,0 l/m 0 min 0 min 0,0 UV-I 0 W/m 0,0 km/h (0 Bft)
11.03.2014 22:34 7,8 C 6,1 C 88 % 1031,9 hPa 0,0 l/m 0 min 0 min 0,0 UV-I 0 W/m 0,0 km/h (0 Bft)
11.03.2014 22:36 7,8 C 6,1 C 88 % 1031,8 hPa 0,0 l/m 0 min 0 min 0,0 UV-I 0 W/m 0,0 km/h (0 Bft)
11.03.2014 22:38 7,8 C 6,1 C 88 % 1031,9 hPa 0,0 l/m 0 min 0 min 0,0 UV-I 0 W/m 0,0 km/h (0 Bft)
11.03.2014 22:40 7,7 C 6,1 C 88 % 1031,9 hPa 0,0 l/m 0 min 0 min 0,0 UV-I 0 W/m 2,6 km/h (1 Bft)
11.03.2014 22:42 7,7 C 6,1 C 88 % 1031,9 hPa 0,0 l/m 0 min 0 min 0,0 UV-I 0 W/m 0,0 km/h (0 Bft)
11.03.2014 22:44 7,7 C 6,1 C 89 % 1031,9 hPa 0,0 l/m 0 min 0 min 0,0 UV-I 0 W/m 10,3 km/h (2 Bft)
11.03.2014 22:46 7,6 C 5,6 C 89 % 1031,9 hPa 0,0 l/m 0 min 0 min 0,0 UV-I 0 W/m 2,6 km/h (1 Bft)
11.03.2014 22:48 7,6 C 6,1 C 89 % 1032,0 hPa 0,0 l/m 0 min 0 min 0,0 UV-I 0 W/m 0,0 km/h (0 Bft)
11.03.2014 22:50 7,6 C 6,1 C 89 % 1032,0 hPa 0,0 l/m 0 min 0 min 0,0 UV-I 0 W/m 2,6 km/h (1 Bft)
11.03.2014 22:52 7,6 C 6,1 C 89 % 1031,9 hPa 0,0 l/m 0 min 0 min 0,0 UV-I 0 W/m 0,0 km/h (0 Bft)
11.03.2014 22:54 7,6 C 5,6 C 89 % 1031,9 hPa 0,0 l/m 0 min 0 min 0,0 UV-I 0 W/m 0,0 km/h (0 Bft)
11.03.2014 22:56 7,6 C 5,6 C 89 % 1031,9 hPa 0,0 l/m 0 min 0 min 0,0 UV-I 0 W/m 0,0 km/h (0 Bft)
11.03.2014 22:58 7,6 C 5,6 C 89 % 1031,9 hPa 0,0 l/m 0 min 0 min 0,0 UV-I 0 W/m 0,0 km/h (0 Bft)
11.03.2014 23:00 7,5 C 5,6 C 89 % 1031,9 hPa 0,0 l/m 0 min 0 min 0,0 UV-I 0 W/m 0,0 km/h (0 Bft)
11.03.2014 23:02 7,4 C 5,6 C 89 % 1031,9 hPa 0,0 l/m 0 min 0 min 0,0 UV-I 0 W/m 7,7 km/h (2 Bft)
11.03.2014 23:04 7,4 C 5,6 C 89 % 1032,0 hPa 0,0 l/m 0 min 0 min 0,0 UV-I 0 W/m 0,0 km/h (0 Bft)
11.03.2014 23:06 7,4 C 5,6 C 89 % 1031,9 hPa 0,0 l/m 0 min 0 min 0,0 UV-I 0 W/m 0,0 km/h (0 Bft)
11.03.2014 23:08 7,4 C 5,6 C 89 % 1031,9 hPa 0,0 l/m 0 min 0 min 0,0 UV-I 0 W/m 0,0 km/h (0 Bft)
11.03.2014 23:10 7,4 C 5,6 C 89 % 1031,9 hPa 0,0 l/m 0 min 0 min 0,0 UV-I 0 W/m 0,0 km/h (0 Bft)
11.03.2014 23:12 7,4 C 5,6 C 89 % 1032,0 hPa 0,0 l/m 0 min 0 min 0,0 UV-I 0 W/m 2,6 km/h (1 Bft)
11.03.2014 23:14 7,4 C 5,6 C 89 % 1031,9 hPa 0,0 l/m 0 min 0 min 0,0 UV-I 0 W/m 0,0 km/h (0 Bft)
11.03.2014 23:16 7,4 C 5,6 C 89 % 1032,0 hPa 0,0 l/m 0 min 0 min 0,0 UV-I 0 W/m 0,0 km/h (0 Bft)
11.03.2014 23:18 7,3 C 5,6 C 89 % 1031,9 hPa 0,0 l/m 0 min 0 min 0,0 UV-I 0 W/m 0,0 km/h (0 Bft)
11.03.2014 23:20 7,3 C 5,6 C 89 % 1032,0 hPa 0,0 l/m 0 min 0 min 0,0 UV-I 0 W/m 0,0 km/h (0 Bft)
11.03.2014 23:22 7,2 C 5,6 C 89 % 1032,0 hPa 0,0 l/m 0 min 0 min 0,0 UV-I 0 W/m 0,0 km/h (0 Bft)
11.03.2014 23:24 7,2 C 5,6 C 89 % 1032,1 hPa 0,0 l/m 0 min 0 min 0,0 UV-I 0 W/m 0,0 km/h (0 Bft)
11.03.2014 23:26 7,2 C 5,6 C 89 % 1032,0 hPa 0,0 l/m 0 min 0 min 0,0 UV-I 0 W/m 0,0 km/h (0 Bft)
11.03.2014 23:28 7,2 C 5,0 C 90 % 1032,0 hPa 0,0 l/m 0 min 0 min 0,0 UV-I 0 W/m 2,6 km/h (1 Bft)
11.03.2014 23:30 7,2 C 5,0 C 90 % 1032,0 hPa 0,0 l/m 0 min 0 min 0,0 UV-I 0 W/m 0,0 km/h (0 Bft)
11.03.2014 23:32 7,2 C 5,6 C 90 % 1032,1 hPa 0,0 l/m 0 min 0 min 0,0 UV-I 0 W/m 0,0 km/h (0 Bft)
11.03.2014 23:34 7,2 C 5,6 C 90 % 1032,1 hPa 0,0 l/m 0 min 0 min 0,0 UV-I 0 W/m 0,0 km/h (0 Bft)
11.03.2014 23:36 7,2 C 5,6 C 90 % 1032,0 hPa 0,0 l/m 0 min 0 min 0,0 UV-I 0 W/m 0,0 km/h (0 Bft)
11.03.2014 23:38 7,2 C 5,6 C 90 % 1032,1 hPa 0,0 l/m 0 min 0 min 0,0 UV-I 0 W/m 0,0 km/h (0 Bft)
11.03.2014 23:40 7,1 C 5,0 C 90 % 1032,1 hPa 0,0 l/m 0 min 0 min 0,0 UV-I 0 W/m 0,0 km/h (0 Bft)
11.03.2014 23:42 7,0 C 5,0 C 90 % 1032,0 hPa 0,0 l/m 0 min 0 min 0,0 UV-I 0 W/m 0,0 km/h (0 Bft)
11.03.2014 23:44 6,9 C 5,0 C 90 % 1032,0 hPa 0,0 l/m 0 min 0 min 0,0 UV-I 0 W/m 2,6 km/h (1 Bft)
11.03.2014 23:46 6,9 C 5,0 C 90 % 1032,0 hPa 0,0 l/m 0 min 0 min 0,0 UV-I 0 W/m 0,0 km/h (0 Bft)
11.03.2014 23:48 6,9 C 5,0 C 90 % 1032,0 hPa 0,0 l/m 0 min 0 min 0,0 UV-I 0 W/m 0,0 km/h (0 Bft)
11.03.2014 23:50 6,9 C 5,0 C 90 % 1032,0 hPa 0,0 l/m 0 min 0 min 0,0 UV-I 0 W/m 5,1 km/h (1 Bft)
11.03.2014 23:52 6,9 C 5,0 C 90 % 1032,1 hPa 0,0 l/m 0 min 0 min 0,0 UV-I 0 W/m 2,6 km/h (1 Bft)
11.03.2014 23:54 6,9 C 5,0 C 90 % 1032,0 hPa 0,0 l/m 0 min 0 min 0,0 UV-I 0 W/m 0,0 km/h (0 Bft)
11.03.2014 23:56 6,8 C 5,0 C 90 % 1032,0 hPa 0,0 l/m 0 min 0 min 0,0 UV-I 0 W/m 0,0 km/h (0 Bft)
11.03.2014 23:58 6,8 C 5,0 C 90 % 1032,0 hPa 0,0 l/m 0 min 0 min 0,0 UV-I 0 W/m 0,0 km/h (0 Bft)
_ Min-Zeit 03:22 03:02 14:56 00:00 - - - - - 00:00
Minimum _ 5,6 C 4,4 C 57 % 1026,4 hPa - - - - - 0,0 km/h (0 Bft)
_ Max-Zeit 15:00 14:58 04:30 21:42 00:00 09:40 00:00 13:18 12:36 11:58
Maximum _ 16,3 C 15,0 C 96 % 1032,1 hPa 0,0 l/m 2 min 0 min 1,4 UV-I 531 W/m 28,3 km/h
W-NW (4 Bft)
Durchschnitt _ 9,8 C 8,5 C 82 % 1029,9 hPa #0,0 l/m #7:46 h #0 min. 1,0 UV-I 282 W/m 8,7 km/h (2 Bft)
© 2014 W. Hausmann